Time,TemperatureF,DewpointF,PressureIn,WindDirection,WindDirectionDegrees,WindSpeedMPH,WindSpeedGustMPH,Humidity,HourlyPrecipIn,Conditions,Clouds,dailyrainin,SolarRadiationWatts/m^2,SoftwareType,DateUTC
2013-07-02 00:00:00,63.8,57.9,29.94,SE,132,1.0,4.0,81,0.00,,,0.01,0.00,VWS V14.01,2013-07-02 04:00:00,
2013-07-02 00:01:00,63.8,57.9,29.95,SE,132,0.0,1.0,81,0.00,,,0.01,0.00,VWS V14.01,2013-07-02 04:01:00,
2013-07-02 00:06:00,63.8,57.9,29.95,East,98,0.0,3.0,81,0.00,,,0.00,0.00,VWS V14.01,2013-07-02 04:06:00,
2013-07-02 00:11:00,63.7,58.1,29.94,East,88,2.0,5.0,82,0.00,,,0.00,0.00,VWS V14.01,2013-07-02 04:11:00,
2013-07-02 00:16:00,63.6,58.0,29.95,East,92,2.0,2.0,82,0.00,,,0.00,0.00,VWS V14.01,2013-07-02 04:16:00,
2013-07-02 00:21:00,63.6,58.0,29.95,ESE,108,0.0,2.0,82,0.00,,,0.00,0.00,VWS V14.01,2013-07-02 04:21:00,
2013-07-02 00:26:00,63.5,58.2,29.95,ESE,123,2.0,5.0,83,0.00,,,0.00,0.00,VWS V14.01,2013-07-02 04:26:00,
2013-07-02 00:31:00,63.4,58.2,29.95,East,93,0.0,3.0,83,0.00,,,0.00,0.00,VWS V14.01,2013-07-02 04:31:00,
2013-07-02 00:36:00,63.4,58.2,29.95,SE,138,5.0,5.0,83,0.00,,,0.00,0.00,VWS V14.01,2013-07-02 04:36:00,
2013-07-02 00:37:00,63.4,58.2,29.95,SE,135,1.0,5.0,83,0.00,,,0.00,0.00,VWS V14.01,2013-07-02 04:37:00,
2013-07-02 00:41:00,63.3,58.4,29.95,ESE,107,1.0,7.0,84,0.00,,,0.00,0.00,VWS V14.01,2013-07-02 04:41:00,
2013-07-02 00:42:00,63.3,58.4,29.95,ESE,107,0.0,2.0,84,0.00,,,0.00,0.00,VWS V14.01,2013-07-02 04:42:00,
2013-07-02 00:46:00,63.2,58.3,29.94,ESE,108,0.0,3.0,84,0.00,,,0.00,0.00,VWS V14.01,2013-07-02 04:46:00,
2013-07-02 00:47:00,63.2,58.3,29.95,ESE,115,3.0,4.0,84,0.00,,,0.00,0.00,VWS V14.01,2013-07-02 04:47:00,
2013-07-02 00:51:00,63.1,58.5,29.95,East,84,0.0,5.0,85,0.00,,,0.00,0.00,VWS V14.01,2013-07-02 04:51:00,
2013-07-02 00:52:00,63.1,58.5,29.94,ESE,110,1.0,3.0,85,0.00,,,0.00,0.00,VWS V14.01,2013-07-02 04:52:00,
2013-07-02 00:56:00,63.0,58.4,29.94,SE,142,0.0,8.0,85,0.00,,,0.00,0.00,VWS V14.01,2013-07-02 04:56:00,
2013-07-02 00:57:00,62.9,58.3,29.94,East,80,1.0,5.0,85,0.00,,,0.00,0.00,VWS V14.01,2013-07-02 04:57:00,
2013-07-02 01:01:00,62.9,58.7,29.94,ESE,120,0.0,1.0,86,0.00,,,0.00,0.00,VWS V14.01,2013-07-02 05:01:00,
2013-07-02 01:02:00,62.9,58.7,29.94,ESE,120,0.0,1.0,86,0.00,,,0.00,0.00,VWS V14.01,2013-07-02 05:02:00,
2013-07-02 01:06:00,62.8,58.6,29.94,ESE,122,0.0,2.0,86,0.00,,,0.00,0.00,VWS V14.01,2013-07-02 05:06:00,
2013-07-02 01:07:00,62.8,58.6,29.94,ESE,122,0.0,2.0,86,0.00,,,0.00,0.00,VWS V14.01,2013-07-02 05:07:00,
2013-07-02 01:11:00,62.7,58.5,29.94,SE,133,2.0,7.0,86,0.00,,,0.00,0.00,VWS V14.01,2013-07-02 05:11:00,
2013-07-02 01:12:00,62.7,58.5,29.94,SE,132,1.0,7.0,86,0.00,,,0.00,0.00,VWS V14.01,2013-07-02 05:12:00,
2013-07-02 01:16:00,62.7,58.8,29.94,SE,136,6.0,6.0,87,0.00,,,0.00,0.00,VWS V14.01,2013-07-02 05:16:00,
2013-07-02 01:17:00,62.7,58.8,29.94,SSE,150,2.0,6.0,87,0.00,,,0.00,0.00,VWS V14.01,2013-07-02 05:17:00,
2013-07-02 01:21:00,62.6,58.4,29.94,ESE,119,1.0,3.0,86,0.00,,,0.00,0.00,VWS V14.01,2013-07-02 05:21:00,
2013-07-02 01:22:00,62.6,58.7,29.94,ESE,119,0.0,3.0,87,0.00,,,0.00,0.00,VWS V14.01,2013-07-02 05:22:00,
2013-07-02 01:27:00,62.6,58.7,29.94,ESE,123,2.0,5.0,87,0.00,,,0.00,0.00,VWS V14.01,2013-07-02 05:27:00,
2013-07-02 01:32:00,62.6,58.7,29.94,SE,134,0.0,4.0,87,0.00,,,0.00,0.00,VWS V14.01,2013-07-02 05:32:00,
2013-07-02 01:37:00,62.6,58.7,29.94,SE,138,0.0,1.0,87,0.00,,,0.00,0.00,VWS V14.01,2013-07-02 05:37:00,
2013-07-02 01:42:00,62.5,58.6,29.94,SE,142,6.0,6.0,87,0.00,,,0.00,0.00,VWS V14.01,2013-07-02 05:42:00,
2013-07-02 01:47:00,62.5,58.6,29.94,SE,140,0.0,3.0,87,0.00,,,0.00,0.00,VWS V14.01,2013-07-02 05:47:00,
2013-07-02 01:48:00,62.5,58.6,29.94,SE,140,0.0,1.0,87,0.00,,,0.00,0.00,VWS V14.01,2013-07-02 05:48:00,
2013-07-02 01:52:00,62.5,58.6,29.94,SE,130,0.0,2.0,87,0.00,,,0.00,0.00,VWS V14.01,2013-07-02 05:52:00,
2013-07-02 01:53:00,62.5,58.6,29.94,SE,128,3.0,5.0,87,0.00,,,0.00,0.00,VWS V14.01,2013-07-02 05:53:00,
2013-07-02 01:57:00,62.5,58.9,29.94,SE,135,0.0,3.0,88,0.00,,,0.00,0.00,VWS V14.01,2013-07-02 05:57:00,
2013-07-02 01:58:00,62.4,58.8,29.94,ESE,122,2.0,2.0,88,0.00,,,0.00,0.00,VWS V14.01,2013-07-02 05:58:00,
2013-07-02 02:02:00,62.2,58.9,29.94,ESE,121,0.0,0.0,89,0.00,,,0.00,0.00,VWS V14.01,2013-07-02 06:02:00,
2013-07-02 02:03:00,62.2,58.9,29.94,ESE,121,0.0,1.0,89,0.00,,,0.00,0.00,VWS V14.01,2013-07-02 06:03:00,
2013-07-02 02:07:00,61.8,58.8,29.94,SE,136,1.0,2.0,90,0.00,,,0.00,0.00,VWS V14.01,2013-07-02 06:07:00,
2013-07-02 02:08:00,61.8,58.8,29.94,SE,136,0.0,1.0,90,0.00,,,0.00,0.00,VWS V14.01,2013-07-02 06:08:00,
2013-07-02 02:12:00,61.5,58.8,29.94,East,88,0.0,1.0,91,0.00,,,0.00,0.00,VWS V14.01,2013-07-02 06:12:00,
2013-07-02 02:13:00,61.5,58.8,29.94,East,90,0.0,3.0,91,0.00,,,0.00,0.00,VWS V14.01,2013-07-02 06:13:00,
2013-07-02 02:17:00,61.3,58.7,29.94,SE,126,0.0,6.0,91,0.00,,,0.00,0.00,VWS V14.01,2013-07-02 06:17:00,
2013-07-02 02:18:00,61.2,58.6,29.94,ESE,123,2.0,3.0,91,0.00,,,0.00,0.00,VWS V14.01,2013-07-02 06:18:00,
2013-07-02 02:22:00,61.2,58.6,29.94,SE,138,0.0,2.0,91,0.00,,,0.00,0.00,VWS V14.01,2013-07-02 06:22:00,
2013-07-02 02:23:00,61.1,58.8,29.94,SE,137,0.0,3.0,92,0.00,,,0.00,0.00,VWS V14.01,2013-07-02 06:23:00,
2013-07-02 02:27:00,61.0,58.7,29.94,ESE,109,0.0,2.0,92,0.00,,,0.00,0.00,VWS V14.01,2013-07-02 06:27:00,
2013-07-02 02:28:00,61.0,58.7,29.94,ESE,109,1.0,2.0,92,0.00,,,0.00,0.00,VWS V14.01,2013-07-02 06:28:00,
2013-07-02 02:32:00,60.9,58.6,29.94,ESE,111,0.0,0.0,92,0.00,,,0.00,0.00,VWS V14.01,2013-07-02 06:32:00,
2013-07-02 02:33:00,60.9,58.6,29.94,ESE,119,0.0,1.0,92,0.00,,,0.00,0.00,VWS V14.01,2013-07-02 06:33:00,
2013-07-02 02:37:00,60.9,58.6,29.94,SE,132,0.0,0.0,92,0.00,,,0.00,0.00,VWS V14.01,2013-07-02 06:37:00,
2013-07-02 02:38:00,60.9,58.6,29.94,SE,132,0.0,0.0,92,0.00,,,0.00,0.00,VWS V14.01,2013-07-02 06:38:00,
2013-07-02 02:42:00,60.8,58.5,29.94,SE,132,0.0,0.0,92,0.00,,,0.00,0.00,VWS V14.01,2013-07-02 06:42:00,
2013-07-02 02:43:00,60.8,58.5,29.94,SE,132,2.0,4.0,92,0.00,,,0.00,0.00,VWS V14.01,2013-07-02 06:43:00,
2013-07-02 02:47:00,60.8,58.5,29.94,SE,131,0.0,0.0,92,0.00,,,0.00,0.00,VWS V14.01,2013-07-02 06:47:00,
2013-07-02 02:48:00,60.7,58.4,29.94,SE,131,0.0,1.0,92,0.00,,,0.00,0.00,VWS V14.01,2013-07-02 06:48:00,
2013-07-02 02:52:00,60.7,58.4,29.94,SE,131,0.0,0.0,92,0.00,,,0.00,0.00,VWS V14.01,2013-07-02 06:52:00,
2013-07-02 02:53:00,60.7,58.4,29.94,SE,131,0.0,0.0,92,0.00,,,0.00,0.00,VWS V14.01,2013-07-02 06:53:00,
2013-07-02 02:54:00,60.8,58.5,29.94,SE,131,0.0,1.0,92,0.00,,,0.00,0.00,VWS V14.01,2013-07-02 06:54:00,
2013-07-02 02:57:00,60.7,58.7,29.94,SE,131,0.0,0.0,93,0.00,,,0.00,0.00,VWS V14.01,2013-07-02 06:57:00,
2013-07-02 02:58:00,60.7,58.7,29.94,SE,131,0.0,0.0,93,0.00,,,0.00,0.00,VWS V14.01,2013-07-02 06:58:00,
2013-07-02 02:59:00,60.7,58.7,29.94,SE,131,0.0,1.0,93,0.00,,,0.00,0.00,VWS V14.01,2013-07-02 06:59:00,
2013-07-02 03:02:00,60.7,58.7,29.94,SE,131,0.0,0.0,93,0.00,,,0.00,0.00,VWS V14.01,2013-07-02 07:02:00,
2013-07-02 03:03:00,60.6,58.6,29.94,SE,135,1.0,5.0,93,0.00,,,0.00,0.00,VWS V14.01,2013-07-02 07:03:00,
2013-07-02 03:04:00,60.6,58.6,29.94,SE,135,2.0,5.0,93,0.00,,,0.00,0.00,VWS V14.01,2013-07-02 07:04:00,
2013-07-02 03:07:00,60.5,58.5,29.94,SE,136,1.0,2.0,93,0.00,,,0.00,0.00,VWS V14.01,2013-07-02 07:07:00,
2013-07-02 03:08:00,60.5,58.5,29.94,SE,136,0.0,1.0,93,0.00,,,0.00,0.00,VWS V14.01,2013-07-02 07:08:00,
2013-07-02 03:09:00,60.5,58.5,29.94,SE,136,0.0,1.0,93,0.00,,,0.00,0.00,VWS V14.01,2013-07-02 07:09:00,
2013-07-02 03:12:00,60.5,58.5,29.94,SE,139,0.0,1.0,93,0.00,,,0.00,0.00,VWS V14.01,2013-07-02 07:12:00,
2013-07-02 03:13:00,60.5,58.5,29.93,SE,139,0.0,1.0,93,0.00,,,0.00,0.00,VWS V14.01,2013-07-02 07:13:00,
2013-07-02 03:14:00,60.5,58.5,29.93,SE,139,0.0,1.0,93,0.00,,,0.00,0.00,VWS V14.01,2013-07-02 07:14:00,
2013-07-02 03:17:00,60.4,58.4,29.93,SE,138,1.0,1.0,93,0.00,,,0.00,0.00,VWS V14.01,2013-07-02 07:17:00,
2013-07-02 03:18:00,60.4,58.4,29.93,SE,138,1.0,1.0,93,0.00,,,0.00,0.00,VWS V14.01,2013-07-02 07:18:00,
2013-07-02 03:19:00,60.3,58.3,29.93,SE,138,0.0,1.0,93,0.00,,,0.00,0.00,VWS V14.01,2013-07-02 07:19:00,
2013-07-02 03:23:00,60.2,58.2,29.93,SE,134,0.0,0.0,93,0.00,,,0.00,0.00,VWS V14.01,2013-07-02 07:23:00,
2013-07-02 03:24:00,60.2,58.2,29.93,SE,134,0.0,2.0,93,0.00,,,0.00,0.00,VWS V14.01,2013-07-02 07:24:00,
2013-07-02 03:28:00,60.2,58.5,29.93,SE,134,0.0,0.0,94,0.00,,,0.00,0.00,VWS V14.01,2013-07-02 07:28:00,
2013-07-02 03:29:00,60.1,58.4,29.93,SE,134,0.0,0.0,94,0.00,,,0.00,0.00,VWS V14.01,2013-07-02 07:29:00,
2013-07-02 03:33:00,60.1,58.4,29.93,SE,134,0.0,1.0,94,0.00,,,0.00,0.00,VWS V14.01,2013-07-02 07:33:00,
2013-07-02 03:34:00,60.1,58.4,29.93,SE,134,0.0,1.0,94,0.00,,,0.00,0.00,VWS V14.01,2013-07-02 07:34:00,
2013-07-02 03:38:00,60.0,58.3,29.94,SE,134,0.0,1.0,94,0.00,,,0.00,0.00,VWS V14.01,2013-07-02 07:38:00,
2013-07-02 03:39:00,60.0,58.3,29.93,SE,134,0.0,0.0,94,0.00,,,0.00,0.00,VWS V14.01,2013-07-02 07:39:00,
2013-07-02 03:43:00,60.0,58.3,29.94,SE,134,0.0,1.0,94,0.00,,,0.00,0.00,VWS V14.01,2013-07-02 07:43:00,
2013-07-02 03:44:00,60.0,58.3,29.94,SE,134,0.0,1.0,94,0.00,,,0.00,0.00,VWS V14.01,2013-07-02 07:44:00,
2013-07-02 03:48:00,60.0,58.3,29.93,SE,134,0.0,0.0,94,0.00,,,0.00,0.00,VWS V14.01,2013-07-02 07:48:00,
2013-07-02 03:49:00,60.0,58.3,29.93,SE,134,0.0,0.0,94,0.00,,,0.00,0.00,VWS V14.01,2013-07-02 07:49:00,
2013-07-02 03:53:00,60.0,58.3,29.93,SE,134,0.0,0.0,94,0.00,,,0.00,0.00,VWS V14.01,2013-07-02 07:53:00,
2013-07-02 03:54:00,60.0,58.3,29.93,SE,134,0.0,0.0,94,0.00,,,0.00,0.00,VWS V14.01,2013-07-02 07:54:00,
2013-07-02 03:58:00,60.0,58.3,29.93,SE,134,0.0,0.0,94,0.00,,,0.00,0.00,VWS V14.01,2013-07-02 07:58:00,
2013-07-02 03:59:00,60.0,58.6,29.93,SE,134,0.0,0.0,95,0.00,,,0.00,0.00,VWS V14.01,2013-07-02 07:59:00,
2013-07-02 04:00:00,60.0,58.6,29.93,SE,133,0.0,1.0,95,0.00,,,0.00,0.00,VWS V14.01,2013-07-02 08:00:00,
2013-07-02 04:03:00,60.0,58.6,29.93,SE,133,0.0,0.0,95,0.00,,,0.00,0.00,VWS V14.01,2013-07-02 08:03:00,
2013-07-02 04:04:00,60.0,58.6,29.93,SE,134,0.0,1.0,95,0.00,,,0.00,0.00,VWS V14.01,2013-07-02 08:04:00,
2013-07-02 04:05:00,60.0,58.6,29.93,SE,133,0.0,1.0,95,0.00,,,0.00,0.00,VWS V14.01,2013-07-02 08:05:00,
2013-07-02 04:08:00,59.9,58.5,29.93,SE,134,0.0,0.0,95,0.00,,,0.00,0.00,VWS V14.01,2013-07-02 08:08:00,
2013-07-02 04:09:00,59.9,58.5,29.93,ESE,123,0.0,1.0,95,0.00,,,0.00,0.00,VWS V14.01,2013-07-02 08:09:00,
2013-07-02 04:10:00,60.0,58.6,29.93,SE,126,0.0,2.0,95,0.00,,,0.00,0.00,VWS V14.01,2013-07-02 08:10:00,
2013-07-02 04:13:00,60.0,58.6,29.93,SE,126,0.0,0.0,95,0.00,,,0.00,0.00,VWS V14.01,2013-07-02 08:13:00,
2013-07-02 04:14:00,60.0,58.6,29.93,SE,126,0.0,0.0,95,0.00,,,0.00,0.00,VWS V14.01,2013-07-02 08:14:00,
2013-07-02 04:15:00,60.0,58.6,29.93,SE,126,0.0,1.0,95,0.00,,,0.00,0.00,VWS V14.01,2013-07-02 08:15:00,
2013-07-02 04:18:00,60.0,58.6,29.93,SE,126,0.0,0.0,95,0.00,,,0.00,0.00,VWS V14.01,2013-07-02 08:18:00,
2013-07-02 04:19:00,60.0,58.6,29.93,SE,126,0.0,0.0,95,0.00,,,0.00,0.00,VWS V14.01,2013-07-02 08:19:00,
2013-07-02 04:20:00,60.0,58.6,29.93,SE,126,0.0,0.0,95,0.00,,,0.00,0.00,VWS V14.01,2013-07-02 08:20:00,
2013-07-02 04:23:00,60.0,58.6,29.93,SE,126,0.0,1.0,95,0.00,,,0.00,0.00,VWS V14.01,2013-07-02 08:23:00,
2013-07-02 04:24:00,60.0,58.6,29.93,SE,126,0.0,1.0,95,0.00,,,0.00,0.00,VWS V14.01,2013-07-02 08:24:00,
2013-07-02 04:25:00,60.0,58.6,29.93,SE,126,0.0,1.0,95,0.00,,,0.00,0.00,VWS V14.01,2013-07-02 08:25:00,
2013-07-02 04:29:00,60.0,58.6,29.93,SE,126,0.0,1.0,95,0.00,,,0.00,0.00,VWS V14.01,2013-07-02 08:29:00,
2013-07-02 04:30:00,60.0,58.6,29.93,SE,127,0.0,0.0,95,0.00,,,0.00,0.00,VWS V14.01,2013-07-02 08:30:00,
2013-07-02 04:34:00,60.0,58.6,29.93,SE,127,0.0,1.0,95,0.00,,,0.00,0.00,VWS V14.01,2013-07-02 08:34:00,
2013-07-02 04:35:00,60.0,58.6,29.93,SE,127,1.0,1.0,95,0.00,,,0.00,0.00,VWS V14.01,2013-07-02 08:35:00,
2013-07-02 04:39:00,60.0,58.6,29.93,East,90,0.0,1.0,95,0.00,,,0.00,0.00,VWS V14.01,2013-07-02 08:39:00,
2013-07-02 04:40:00,60.0,58.6,29.93,East,90,0.0,1.0,95,0.00,,,0.00,0.00,VWS V14.01,2013-07-02 08:40:00,
2013-07-02 04:44:00,60.0,58.6,29.93,East,90,0.0,0.0,95,0.00,,,0.00,0.00,VWS V14.01,2013-07-02 08:44:00,
2013-07-02 04:45:00,60.0,58.6,29.93,East,90,0.0,1.0,95,0.00,,,0.00,0.00,VWS V14.01,2013-07-02 08:45:00,
2013-07-02 04:49:00,60.0,58.6,29.92,East,90,0.0,0.0,95,0.00,,,0.00,0.00,VWS V14.01,2013-07-02 08:49:00,
2013-07-02 04:50:00,60.0,58.6,29.92,East,90,0.0,2.0,95,0.00,,,0.00,0.00,VWS V14.01,2013-07-02 08:50:00,
2013-07-02 04:54:00,60.0,58.6,29.92,East,90,1.0,1.0,95,0.00,,,0.00,0.00,VWS V14.01,2013-07-02 08:54:00,
2013-07-02 04:55:00,60.0,58.6,29.92,East,90,0.0,1.0,95,0.00,,,0.00,0.00,VWS V14.01,2013-07-02 08:55:00,
2013-07-02 04:59:00,60.0,58.6,29.92,East,88,1.0,1.0,95,0.00,,,0.00,0.00,VWS V14.01,2013-07-02 08:59:00,
2013-07-02 05:00:00,59.9,58.5,29.92,East,88,0.0,0.0,95,0.00,,,0.00,0.00,VWS V14.01,2013-07-02 09:00:00,
2013-07-02 05:04:00,59.9,58.8,29.93,East,88,0.0,1.0,96,0.00,,,0.00,0.00,VWS V14.01,2013-07-02 09:04:00,
2013-07-02 05:05:00,59.9,58.8,29.93,SE,146,0.0,0.0,96,0.00,,,0.00,0.00,VWS V14.01,2013-07-02 09:05:00,
2013-07-02 05:09:00,60.0,58.9,29.93,SE,146,0.0,1.0,96,0.00,,,0.00,0.00,VWS V14.01,2013-07-02 09:09:00,
2013-07-02 05:10:00,60.0,58.9,29.93,SE,146,0.0,0.0,96,0.00,,,0.00,0.00,VWS V14.01,2013-07-02 09:10:00,
2013-07-02 05:14:00,60.0,58.9,29.93,East,90,1.0,3.0,96,0.00,,,0.00,0.00,VWS V14.01,2013-07-02 09:14:00,
2013-07-02 05:15:00,60.0,58.9,29.93,East,88,0.0,2.0,96,0.00,,,0.00,0.00,VWS V14.01,2013-07-02 09:15:00,
2013-07-02 05:16:00,60.0,58.9,29.93,East,88,0.0,1.0,96,0.00,,,0.00,0.00,VWS V14.01,2013-07-02 09:16:00,
2013-07-02 05:19:00,60.0,58.9,29.93,East,88,0.0,2.0,96,0.00,,,0.00,0.00,VWS V14.01,2013-07-02 09:19:00,
2013-07-02 05:20:00,60.0,58.9,29.93,East,88,0.0,0.0,96,0.00,,,0.00,0.00,VWS V14.01,2013-07-02 09:20:00,
2013-07-02 05:21:00,60.0,58.9,29.93,East,88,0.0,1.0,96,0.00,,,0.00,0.00,VWS V14.01,2013-07-02 09:21:00,
2013-07-02 05:24:00,60.1,59.0,29.93,East,88,0.0,0.0,96,0.00,,,0.00,0.00,VWS V14.01,2013-07-02 09:24:00,
2013-07-02 05:25:00,60.0,58.9,29.93,East,88,0.0,1.0,96,0.00,,,0.00,0.00,VWS V14.01,2013-07-02 09:25:00,
2013-07-02 05:26:00,60.1,59.0,29.93,East,88,0.0,2.0,96,0.00,,,0.00,0.00,VWS V14.01,2013-07-02 09:26:00,
2013-07-02 05:29:00,60.1,59.0,29.93,SE,144,0.0,0.0,96,0.00,,,0.00,0.00,VWS V14.01,2013-07-02 09:29:00,
2013-07-02 05:30:00,60.1,59.0,29.93,SE,144,0.0,1.0,96,0.00,,,0.00,0.00,VWS V14.01,2013-07-02 09:30:00,
2013-07-02 05:31:00,60.1,59.0,29.93,SE,144,0.0,1.0,96,0.00,,,0.00,0.00,VWS V14.01,2013-07-02 09:31:00,
2013-07-02 05:34:00,60.2,59.1,29.93,SE,144,1.0,1.0,96,0.00,,,0.00,0.00,VWS V14.01,2013-07-02 09:34:00,
2013-07-02 05:35:00,60.2,59.1,29.93,SE,144,0.0,0.0,96,0.00,,,0.00,0.00,VWS V14.01,2013-07-02 09:35:00,
2013-07-02 05:36:00,60.2,59.1,29.93,SE,144,0.0,1.0,96,0.00,,,0.00,0.00,VWS V14.01,2013-07-02 09:36:00,
2013-07-02 05:39:00,60.2,59.1,29.94,SSE,157,0.0,1.0,96,0.00,,,0.00,0.00,VWS V14.01,2013-07-02 09:39:00,
2013-07-02 05:40:00,60.2,59.1,29.94,SSE,157,1.0,1.0,96,0.00,,,0.00,0.00,VWS V14.01,2013-07-02 09:40:00,
2013-07-02 05:41:00,60.2,59.1,29.94,SE,126,0.0,1.0,96,0.00,,,0.00,0.00,VWS V14.01,2013-07-02 09:41:00,
2013-07-02 05:44:00,60.2,59.1,29.94,ESE,115,0.0,1.0,96,0.00,,,0.00,0.00,VWS V14.01,2013-07-02 09:44:00,
2013-07-02 05:45:00,60.2,59.1,29.94,ESE,117,3.0,3.0,96,0.00,,,0.00,0.00,VWS V14.01,2013-07-02 09:45:00,
2013-07-02 05:46:00,60.2,59.1,29.94,ESE,117,0.0,7.0,96,0.00,,,0.00,0.00,VWS V14.01,2013-07-02 09:46:00,
2013-07-02 05:49:00,60.2,59.1,29.94,ESE,117,0.0,0.0,96,0.00,,,0.00,0.00,VWS V14.01,2013-07-02 09:49:00,
2013-07-02 05:50:00,60.2,59.1,29.94,ESE,117,0.0,0.0,96,0.00,,,0.00,0.00,VWS V14.01,2013-07-02 09:50:00,
2013-07-02 05:51:00,60.2,59.1,29.94,ESE,117,0.0,0.0,96,0.00,,,0.00,0.00,VWS V14.01,2013-07-02 09:51:00,
2013-07-02 05:54:00,60.2,59.1,29.94,ESE,105,0.0,0.0,96,0.00,,,0.00,0.00,VWS V14.01,2013-07-02 09:54:00,
2013-07-02 05:55:00,60.2,59.1,29.94,East,100,0.0,0.0,96,0.00,,,0.00,0.00,VWS V14.01,2013-07-02 09:55:00,
2013-07-02 05:56:00,60.3,59.2,29.94,East,100,0.0,1.0,96,0.00,,,0.00,0.00,VWS V14.01,2013-07-02 09:56:00,
2013-07-02 05:59:00,60.3,59.2,29.94,ENE,62,0.0,1.0,96,0.00,,,0.00,0.00,VWS V14.01,2013-07-02 09:59:00,
2013-07-02 06:00:00,60.3,59.2,29.94,ENE,62,0.0,0.0,96,0.00,,,0.00,0.00,VWS V14.01,2013-07-02 10:00:00,
2013-07-02 06:01:00,60.3,59.2,29.94,ENE,59,0.0,3.0,96,0.00,,,0.00,0.00,VWS V14.01,2013-07-02 10:01:00,
2013-07-02 06:04:00,60.3,59.2,29.94,East,92,0.0,1.0,96,0.00,,,0.00,0.00,VWS V14.01,2013-07-02 10:04:00,
2013-07-02 06:05:00,60.3,59.2,29.94,East,92,1.0,1.0,96,0.00,,,0.00,0.00,VWS V14.01,2013-07-02 10:05:00,
2013-07-02 06:06:00,60.3,59.2,29.94,East,92,0.0,1.0,96,0.00,,,0.00,0.00,VWS V14.01,2013-07-02 10:06:00,
2013-07-02 06:10:00,60.3,59.2,29.94,ENE,60,0.0,1.0,96,0.00,,,0.00,0.00,VWS V14.01,2013-07-02 10:10:00,
2013-07-02 06:11:00,60.3,59.2,29.94,NW,319,0.0,1.0,96,0.00,,,0.00,0.00,VWS V14.01,2013-07-02 10:11:00,
2013-07-02 06:15:00,60.3,59.2,29.94,NW,311,0.0,2.0,96,0.00,,,0.00,0.00,VWS V14.01,2013-07-02 10:15:00,
2013-07-02 06:16:00,60.3,59.2,29.94,NW,311,1.0,2.0,96,0.00,,,0.00,0.00,VWS V14.01,2013-07-02 10:16:00,
2013-07-02 06:20:00,60.4,59.3,29.94,NW,310,0.0,1.0,96,0.00,,,0.00,0.00,VWS V14.01,2013-07-02 10:20:00,
2013-07-02 06:21:00,60.4,59.3,29.94,NW,307,0.0,4.0,96,0.00,,,0.00,0.00,VWS V14.01,2013-07-02 10:21:00,
2013-07-02 06:25:00,60.4,59.3,29.94,NW,307,0.0,1.0,96,0.00,,,0.00,0.00,VWS V14.01,2013-07-02 10:25:00,
2013-07-02 06:26:00,60.4,59.3,29.94,WNW,303,0.0,4.0,96,0.00,,,0.00,0.00,VWS V14.01,2013-07-02 10:26:00,
2013-07-02 06:30:00,60.4,59.3,29.94,WSW,238,0.0,1.0,96,0.00,,,0.00,0.00,VWS V14.01,2013-07-02 10:30:00,
2013-07-02 06:31:00,60.4,59.3,29.94,WSW,238,0.0,1.0,96,0.00,,,0.00,0.00,VWS V14.01,2013-07-02 10:31:00,
2013-07-02 06:35:00,60.4,59.3,29.94,WSW,238,0.0,2.0,96,0.00,,,0.00,0.00,VWS V14.01,2013-07-02 10:35:00,
2013-07-02 06:36:00,60.4,59.3,29.94,WSW,238,0.0,1.0,96,0.00,,,0.00,0.00,VWS V14.01,2013-07-02 10:36:00,
2013-07-02 06:40:00,60.4,59.3,29.94,WSW,238,0.0,1.0,96,0.00,,,0.00,0.00,VWS V14.01,2013-07-02 10:40:00,
2013-07-02 06:41:00,60.4,59.3,29.94,WSW,238,0.0,1.0,96,0.00,,,0.00,0.00,VWS V14.01,2013-07-02 10:41:00,
2013-07-02 06:45:00,60.5,59.4,29.93,WSW,237,0.0,0.0,96,0.00,,,0.00,0.00,VWS V14.01,2013-07-02 10:45:00,
2013-07-02 06:46:00,60.5,59.4,29.93,WSW,237,1.0,2.0,96,0.00,,,0.00,0.00,VWS V14.01,2013-07-02 10:46:00,
2013-07-02 06:50:00,60.5,59.4,29.94,SW,236,0.0,0.0,96,0.00,,,0.00,0.00,VWS V14.01,2013-07-02 10:50:00,
2013-07-02 06:51:00,60.4,59.3,29.94,SW,236,0.0,0.0,96,0.00,,,0.00,0.00,VWS V14.01,2013-07-02 10:51:00,
2013-07-02 06:52:00,60.5,59.4,29.93,SW,236,0.0,1.0,96,0.00,,,0.00,0.00,VWS V14.01,2013-07-02 10:52:00,
2013-07-02 06:56:00,60.5,59.4,29.94,SW,235,0.0,1.0,96,0.00,,,0.00,0.00,VWS V14.01,2013-07-02 10:56:00,
2013-07-02 06:57:00,60.5,59.4,29.94,SW,235,0.0,0.0,96,0.00,,,0.00,0.00,VWS V14.01,2013-07-02 10:57:00,
2013-07-02 07:01:00,60.5,59.7,29.94,SSE,166,0.0,0.0,97,0.00,,,0.00,0.00,VWS V14.01,2013-07-02 11:01:00,
2013-07-02 07:02:00,60.5,59.7,29.94,SSE,166,0.0,0.0,97,0.00,,,0.00,0.00,VWS V14.01,2013-07-02 11:02:00,
2013-07-02 07:06:00,60.6,59.8,29.94,SSE,152,0.0,1.0,97,0.00,,,0.00,0.00,VWS V14.01,2013-07-02 11:06:00,
2013-07-02 07:07:00,60.6,59.8,29.94,SSE,151,1.0,1.0,97,0.00,,,0.00,0.00,VWS V14.01,2013-07-02 11:07:00,
2013-07-02 07:11:00,60.6,59.8,29.94,SSE,151,0.0,1.0,97,0.00,,,0.00,0.00,VWS V14.01,2013-07-02 11:11:00,
2013-07-02 07:12:00,60.6,59.8,29.94,SSE,151,0.0,0.0,97,0.00,,,0.00,0.00,VWS V14.01,2013-07-02 11:12:00,
2013-07-02 07:16:00,60.6,59.8,29.94,SSE,153,0.0,4.0,97,0.00,,,0.00,0.00,VWS V14.01,2013-07-02 11:16:00,
2013-07-02 07:17:00,60.6,59.8,29.94,SSE,153,0.0,1.0,97,0.00,,,0.00,0.00,VWS V14.01,2013-07-02 11:17:00,
2013-07-02 07:21:00,60.6,59.8,29.95,SSE,148,0.0,3.0,97,0.00,,,0.00,0.00,VWS V14.01,2013-07-02 11:21:00,
2013-07-02 07:22:00,60.6,59.8,29.94,SSE,148,0.0,0.0,97,0.00,,,0.00,0.00,VWS V14.01,2013-07-02 11:22:00,
2013-07-02 07:26:00,60.6,59.8,29.95,SSE,148,0.0,1.0,97,0.00,,,0.00,0.00,VWS V14.01,2013-07-02 11:26:00,
2013-07-02 07:27:00,60.7,59.8,29.94,SSE,148,0.0,1.0,97,0.00,,,0.00,0.00,VWS V14.01,2013-07-02 11:27:00,
2013-07-02 07:31:00,60.7,59.8,29.95,SE,132,0.0,1.0,97,0.00,,,0.00,0.00,VWS V14.01,2013-07-02 11:31:00,
2013-07-02 07:32:00,60.7,59.8,29.95,SE,132,1.0,1.0,97,0.00,,,0.00,0.00,VWS V14.01,2013-07-02 11:32:00,
2013-07-02 07:36:00,60.7,59.8,29.95,SE,131,0.0,1.0,97,0.00,,,0.00,0.00,VWS V14.01,2013-07-02 11:36:00,
2013-07-02 07:37:00,60.7,59.8,29.95,SE,132,0.0,1.0,97,0.00,,,0.00,0.00,VWS V14.01,2013-07-02 11:37:00,
2013-07-02 07:41:00,60.7,59.8,29.95,SE,132,1.0,1.0,97,0.00,,,0.00,0.00,VWS V14.01,2013-07-02 11:41:00,
2013-07-02 07:42:00,60.8,60.0,29.95,SE,137,0.0,4.0,97,0.00,,,0.00,0.00,VWS V14.01,2013-07-02 11:42:00,
2013-07-02 07:46:00,60.8,60.0,29.95,SE,137,0.0,0.0,97,0.00,,,0.00,0.00,VWS V14.01,2013-07-02 11:46:00,
2013-07-02 07:47:00,60.8,60.0,29.95,SE,137,0.0,0.0,97,0.00,,,0.00,0.00,VWS V14.01,2013-07-02 11:47:00,
2013-07-02 07:51:00,60.8,60.0,29.95,East,96,0.0,1.0,97,0.00,,,0.00,0.00,VWS V14.01,2013-07-02 11:51:00,
2013-07-02 07:52:00,60.8,60.0,29.95,East,96,0.0,1.0,97,0.00,,,0.00,0.00,VWS V14.01,2013-07-02 11:52:00,
2013-07-02 07:57:00,60.8,60.0,29.95,East,96,1.0,1.0,97,0.00,,,0.00,0.00,VWS V14.01,2013-07-02 11:57:00,
2013-07-02 08:02:00,60.9,60.0,29.95,ESE,106,1.0,2.0,97,0.00,,,0.00,0.00,VWS V14.01,2013-07-02 12:02:00,
2013-07-02 08:07:00,60.9,60.0,29.95,South,190,1.0,1.0,97,0.00,,,0.00,0.00,VWS V14.01,2013-07-02 12:07:00,
2013-07-02 08:08:00,60.9,60.0,29.95,South,190,0.0,0.0,97,0.00,,,0.00,0.00,VWS V14.01,2013-07-02 12:08:00,
2013-07-02 08:12:00,60.9,60.0,29.95,South,182,0.0,1.0,97,0.00,,,0.00,0.00,VWS V14.01,2013-07-02 12:12:00,
2013-07-02 08:13:00,60.9,60.0,29.95,South,182,0.0,0.0,97,0.00,,,0.00,0.00,VWS V14.01,2013-07-02 12:13:00,
2013-07-02 08:17:00,60.9,60.0,29.95,South,182,0.0,3.0,97,0.00,,,0.00,0.00,VWS V14.01,2013-07-02 12:17:00,
2013-07-02 08:18:00,60.9,60.0,29.95,ESE,109,2.0,3.0,97,0.00,,,0.00,0.00,VWS V14.01,2013-07-02 12:18:00,
2013-07-02 08:22:00,61.0,60.2,29.95,East,94,3.0,5.0,97,0.00,,,0.00,0.00,VWS V14.01,2013-07-02 12:22:00,
2013-07-02 08:23:00,61.0,60.2,29.95,SE,141,0.0,5.0,97,0.00,,,0.00,0.00,VWS V14.01,2013-07-02 12:23:00,
2013-07-02 08:27:00,61.1,60.2,29.96,SE,141,0.0,1.0,97,0.00,,,0.00,0.00,VWS V14.01,2013-07-02 12:27:00,
2013-07-02 08:28:00,61.1,60.2,29.96,SE,141,0.0,1.0,97,0.00,,,0.00,0.00,VWS V14.01,2013-07-02 12:28:00,
2013-07-02 08:32:00,61.1,60.2,29.96,SE,141,0.0,3.0,97,0.00,,,0.00,0.00,VWS V14.01,2013-07-02 12:32:00,
2013-07-02 08:33:00,61.2,60.3,29.96,SE,141,0.0,0.0,97,0.00,,,0.00,0.00,VWS V14.01,2013-07-02 12:33:00,
2013-07-02 08:37:00,61.2,60.3,29.96,ESE,121,0.0,1.0,97,0.00,,,0.00,0.00,VWS V14.01,2013-07-02 12:37:00,
2013-07-02 08:38:00,61.2,60.3,29.96,ESE,121,1.0,1.0,97,0.00,,,0.00,0.00,VWS V14.01,2013-07-02 12:38:00,
2013-07-02 08:42:00,61.2,60.3,29.96,SE,126,3.0,3.0,97,0.00,,,0.00,0.00,VWS V14.01,2013-07-02 12:42:00,
2013-07-02 08:43:00,61.2,60.3,29.96,SE,126,0.0,3.0,97,0.00,,,0.00,0.00,VWS V14.01,2013-07-02 12:43:00,
2013-07-02 08:44:00,61.2,60.3,29.96,SE,126,0.0,0.0,97,0.00,,,0.00,0.00,VWS V14.01,2013-07-02 12:44:00,
2013-07-02 08:47:00,61.3,60.4,29.96,SE,127,0.0,0.0,97,0.00,,,0.00,0.00,VWS V14.01,2013-07-02 12:47:00,
2013-07-02 08:48:00,61.3,60.4,29.96,SE,127,0.0,1.0,97,0.00,,,0.00,0.00,VWS V14.01,2013-07-02 12:48:00,
2013-07-02 08:49:00,61.3,60.4,29.96,East,95,3.0,3.0,97,0.00,,,0.00,0.00,VWS V14.01,2013-07-02 12:49:00,
2013-07-02 08:52:00,61.3,60.4,29.96,SSE,152,1.0,3.0,97,0.00,,,0.00,0.00,VWS V14.01,2013-07-02 12:52:00,
2013-07-02 08:53:00,61.3,60.4,29.96,SSE,152,0.0,3.0,97,0.00,,,0.00,0.00,VWS V14.01,2013-07-02 12:53:00,
2013-07-02 08:54:00,61.3,60.4,29.96,SSE,152,0.0,0.0,97,0.00,,,0.00,0.00,VWS V14.01,2013-07-02 12:54:00,
2013-07-02 08:57:00,61.3,60.4,29.96,East,92,2.0,2.0,97,0.00,,,0.00,0.00,VWS V14.01,2013-07-02 12:57:00,
2013-07-02 08:58:00,61.4,60.5,29.96,ESE,117,1.0,3.0,97,0.00,,,0.00,0.00,VWS V14.01,2013-07-02 12:58:00,
2013-07-02 08:59:00,61.4,60.5,29.96,ESE,117,0.0,1.0,97,0.00,,,0.00,0.00,VWS V14.01,2013-07-02 12:59:00,
2013-07-02 09:02:00,61.3,60.4,29.96,ESE,117,0.0,0.0,97,0.00,,,0.00,0.00,VWS V14.01,2013-07-02 13:02:00,
2013-07-02 09:03:00,61.3,60.4,29.96,ESE,117,0.0,0.0,97,0.00,,,0.00,0.00,VWS V14.01,2013-07-02 13:03:00,
2013-07-02 09:04:00,61.3,60.4,29.96,ESE,117,0.0,1.0,97,0.00,,,0.00,0.00,VWS V14.01,2013-07-02 13:04:00,
2013-07-02 09:08:00,61.4,60.5,29.96,ESE,117,0.0,1.0,97,0.00,,,0.00,0.00,VWS V14.01,2013-07-02 13:08:00,
2013-07-02 09:09:00,61.4,60.5,29.96,ESE,117,2.0,2.0,97,0.00,,,0.00,0.00,VWS V14.01,2013-07-02 13:09:00,
2013-07-02 09:13:00,61.4,60.5,29.96,SE,134,0.0,0.0,97,0.00,,,0.00,0.00,VWS V14.01,2013-07-02 13:13:00,
2013-07-02 09:14:00,61.4,60.5,29.96,SE,134,1.0,3.0,97,0.00,,,0.00,0.00,VWS V14.01,2013-07-02 13:14:00,
2013-07-02 09:18:00,61.5,60.6,29.96,SE,134,1.0,1.0,97,0.00,,,0.00,0.00,VWS V14.01,2013-07-02 13:18:00,
2013-07-02 09:19:00,61.5,60.6,29.96,SE,134,0.0,1.0,97,0.00,,,0.00,0.00,VWS V14.01,2013-07-02 13:19:00,
2013-07-02 09:23:00,61.5,60.6,29.96,SE,134,0.0,1.0,97,0.00,,,0.00,0.00,VWS V14.01,2013-07-02 13:23:00,
2013-07-02 09:24:00,61.5,60.6,29.96,SE,134,0.0,1.0,97,0.00,,,0.00,0.00,VWS V14.01,2013-07-02 13:24:00,
2013-07-02 09:28:00,61.5,60.6,29.96,SE,134,0.0,0.0,97,0.00,,,0.00,0.00,VWS V14.01,2013-07-02 13:28:00,
2013-07-02 09:29:00,61.6,60.7,29.96,SE,134,0.0,1.0,97,0.00,,,0.00,0.00,VWS V14.01,2013-07-02 13:29:00,
2013-07-02 09:33:00,61.7,60.8,29.96,SE,134,0.0,4.0,97,0.00,,,0.00,0.00,VWS V14.01,2013-07-02 13:33:00,
2013-07-02 09:34:00,61.7,60.8,29.96,SE,134,0.0,1.0,97,0.00,,,0.00,0.00,VWS V14.01,2013-07-02 13:34:00,
2013-07-02 09:38:00,61.7,60.8,29.97,SE,134,2.0,2.0,97,0.00,,,0.00,0.00,VWS V14.01,2013-07-02 13:38:00,
2013-07-02 09:39:00,61.7,60.8,29.97,SE,134,0.0,1.0,97,0.00,,,0.00,0.00,VWS V14.01,2013-07-02 13:39:00,
2013-07-02 09:43:00,61.8,60.9,29.97,SE,134,0.0,0.0,97,0.00,,,0.00,0.00,VWS V14.01,2013-07-02 13:43:00,
2013-07-02 09:44:00,61.8,60.9,29.97,SE,134,0.0,1.0,97,0.00,,,0.00,0.00,VWS V14.01,2013-07-02 13:44:00,
2013-07-02 09:48:00,61.8,60.9,29.97,SE,134,4.0,4.0,97,0.00,,,0.00,0.00,VWS V14.01,2013-07-02 13:48:00,
2013-07-02 09:49:00,61.8,60.9,29.97,SE,134,0.0,4.0,97,0.00,,,0.00,0.00,VWS V14.01,2013-07-02 13:49:00,
2013-07-02 09:53:00,61.8,60.9,29.97,SE,134,0.0,0.0,97,0.00,,,0.00,0.00,VWS V14.01,2013-07-02 13:53:00,
2013-07-02 09:54:00,61.9,61.0,29.97,SE,134,1.0,1.0,97,0.00,,,0.00,0.00,VWS V14.01,2013-07-02 13:54:00,
2013-07-02 09:58:00,61.9,61.0,29.97,SE,146,0.0,0.0,97,0.00,,,0.00,0.00,VWS V14.01,2013-07-02 13:58:00,
2013-07-02 09:59:00,61.9,61.0,29.97,SE,146,0.0,1.0,97,0.00,,,0.00,0.00,VWS V14.01,2013-07-02 13:59:00,
2013-07-02 10:00:00,62.0,61.1,29.97,SE,146,0.0,0.0,97,0.00,,,0.00,0.00,VWS V14.01,2013-07-02 14:00:00,
2013-07-02 10:03:00,62.0,61.1,29.97,SE,140,0.0,0.0,97,0.00,,,0.00,0.00,VWS V14.01,2013-07-02 14:03:00,
2013-07-02 10:04:00,62.0,61.1,29.97,SE,140,0.0,0.0,97,0.00,,,0.00,0.00,VWS V14.01,2013-07-02 14:04:00,
2013-07-02 10:05:00,62.0,61.1,29.97,SE,140,1.0,1.0,97,0.00,,,0.00,0.00,VWS V14.01,2013-07-02 14:05:00,
2013-07-02 10:08:00,62.1,61.2,29.97,SE,140,0.0,3.0,97,0.00,,,0.00,0.00,VWS V14.01,2013-07-02 14:08:00,
2013-07-02 10:09:00,62.0,61.1,29.97,SE,144,7.0,7.0,97,0.00,,,0.00,0.00,VWS V14.01,2013-07-02 14:09:00,
2013-07-02 10:10:00,62.0,61.1,29.97,SSE,148,2.0,4.0,97,0.00,,,0.00,0.00,VWS V14.01,2013-07-02 14:10:00,
2013-07-02 10:13:00,62.0,60.8,29.97,SE,142,2.0,2.0,96,0.00,,,0.00,0.00,VWS V14.01,2013-07-02 14:13:00,
2013-07-02 10:14:00,62.0,60.8,29.97,SE,143,0.0,5.0,96,0.00,,,0.00,0.00,VWS V14.01,2013-07-02 14:14:00,
2013-07-02 10:15:00,62.0,60.8,29.97,SE,143,0.0,1.0,96,0.00,,,0.00,0.00,VWS V14.01,2013-07-02 14:15:00,
2013-07-02 10:18:00,62.1,61.2,29.97,SE,128,1.0,2.0,97,0.00,,,0.00,0.00,VWS V14.01,2013-07-02 14:18:00,
2013-07-02 10:19:00,62.1,61.2,29.97,SE,128,0.0,0.0,97,0.00,,,0.00,0.00,VWS V14.01,2013-07-02 14:19:00,
2013-07-02 10:20:00,62.1,61.2,29.97,SE,128,1.0,1.0,97,0.00,,,0.00,0.00,VWS V14.01,2013-07-02 14:20:00,
2013-07-02 10:23:00,62.1,61.0,29.97,SE,132,0.0,0.0,96,0.00,,,0.00,0.00,VWS V14.01,2013-07-02 14:23:00,
2013-07-02 10:24:00,62.1,61.0,29.97,SE,132,1.0,1.0,96,0.00,,,0.00,0.00,VWS V14.01,2013-07-02 14:24:00,
2013-07-02 10:25:00,62.1,61.0,29.97,SE,132,0.0,1.0,96,0.00,,,0.00,0.00,VWS V14.01,2013-07-02 14:25:00,
2013-07-02 10:28:00,62.3,61.2,29.97,SE,132,0.0,0.0,96,0.00,,,0.00,0.00,VWS V14.01,2013-07-02 14:28:00,
2013-07-02 10:29:00,62.3,61.4,29.97,SE,132,0.0,0.0,97,0.00,,,0.00,0.00,VWS V14.01,2013-07-02 14:29:00,
2013-07-02 10:30:00,62.3,61.4,29.97,SE,132,0.0,1.0,97,0.00,,,0.00,0.00,VWS V14.01,2013-07-02 14:30:00,
2013-07-02 10:33:00,62.4,61.2,29.97,SE,132,0.0,0.0,96,0.00,,,0.00,0.00,VWS V14.01,2013-07-02 14:33:00,
2013-07-02 10:34:00,62.4,61.2,29.97,SE,132,2.0,2.0,96,0.00,,,0.00,0.00,VWS V14.01,2013-07-02 14:34:00,
2013-07-02 10:35:00,62.5,61.3,29.97,SE,132,0.0,2.0,96,0.00,,,0.00,0.00,VWS V14.01,2013-07-02 14:35:00,
2013-07-02 10:38:00,62.5,61.3,29.97,SE,132,0.0,1.0,96,0.00,,,0.00,0.00,VWS V14.01,2013-07-02 14:38:00,
2013-07-02 10:39:00,62.6,61.5,29.97,SE,130,0.0,0.0,96,0.00,,,0.00,0.00,VWS V14.01,2013-07-02 14:39:00,
2013-07-02 10:40:00,62.6,61.5,29.97,East,101,3.0,5.0,96,0.00,,,0.00,0.00,VWS V14.01,2013-07-02 14:40:00,
2013-07-02 10:43:00,62.7,61.8,29.97,ESE,102,0.0,0.0,97,0.00,,,0.00,0.00,VWS V14.01,2013-07-02 14:43:00,
2013-07-02 10:44:00,62.8,61.7,29.97,ESE,102,1.0,2.0,96,0.00,,,0.00,0.00,VWS V14.01,2013-07-02 14:44:00,
2013-07-02 10:45:00,62.8,61.7,29.97,ESE,103,4.0,4.0,96,0.00,,,0.00,0.00,VWS V14.01,2013-07-02 14:45:00,
2013-07-02 10:48:00,62.9,61.8,29.97,SE,134,0.0,1.0,96,0.00,,,0.00,0.00,VWS V14.01,2013-07-02 14:48:00,
2013-07-02 10:49:00,62.9,61.8,29.97,SE,134,0.0,1.0,96,0.00,,,0.00,0.00,VWS V14.01,2013-07-02 14:49:00,
2013-07-02 10:50:00,62.9,61.8,29.97,SE,134,0.0,2.0,96,0.00,,,0.00,0.00,VWS V14.01,2013-07-02 14:50:00,
2013-07-02 10:53:00,63.1,61.9,29.97,SE,134,0.0,1.0,96,0.00,,,0.00,0.00,VWS V14.01,2013-07-02 14:53:00,
2013-07-02 10:54:00,63.1,61.9,29.97,SE,134,0.0,0.0,96,0.00,,,0.00,0.00,VWS V14.01,2013-07-02 14:54:00,
2013-07-02 10:55:00,63.1,61.9,29.97,ESE,105,2.0,4.0,96,0.00,,,0.00,0.00,VWS V14.01,2013-07-02 14:55:00,
2013-07-02 10:59:00,63.3,62.1,29.97,ESE,107,1.0,1.0,96,0.00,,,0.00,0.00,VWS V14.01,2013-07-02 14:59:00,
2013-07-02 11:00:00,63.4,62.2,29.97,ESE,107,3.0,3.0,96,0.00,,,0.00,0.00,VWS V14.01,2013-07-02 15:00:00,
2013-07-02 11:04:00,63.4,62.0,29.97,SSE,147,0.0,1.0,95,0.00,,,0.00,0.00,VWS V14.01,2013-07-02 15:04:00,
2013-07-02 11:05:00,63.5,62.0,29.97,SSE,147,1.0,1.0,95,0.00,,,0.00,0.00,VWS V14.01,2013-07-02 15:05:00,
2013-07-02 11:09:00,63.6,62.2,29.97,SSE,147,0.0,2.0,95,0.00,,,0.00,0.00,VWS V14.01,2013-07-02 15:09:00,
2013-07-02 11:10:00,63.6,62.2,29.97,SSE,147,0.0,1.0,95,0.00,,,0.00,0.00,VWS V14.01,2013-07-02 15:10:00,
2013-07-02 11:14:00,63.8,62.3,29.97,SSE,147,0.0,0.0,95,0.00,,,0.00,0.00,VWS V14.01,2013-07-02 15:14:00,
2013-07-02 11:15:00,63.9,62.4,29.97,SSE,147,0.0,0.0,95,0.00,,,0.00,0.00,VWS V14.01,2013-07-02 15:15:00,
2013-07-02 11:19:00,64.1,62.6,29.97,SE,146,0.0,4.0,95,0.00,,,0.00,0.00,VWS V14.01,2013-07-02 15:19:00,
2013-07-02 11:20:00,64.1,62.6,29.97,SE,146,0.0,1.0,95,0.00,,,0.00,0.00,VWS V14.01,2013-07-02 15:20:00,
2013-07-02 11:21:00,64.1,62.6,29.97,SE,146,0.0,0.0,95,0.00,,,0.00,0.00,VWS V14.01,2013-07-02 15:21:00,
2013-07-02 11:24:00,64.1,62.3,29.97,SE,146,1.0,2.0,94,0.00,,,0.00,0.00,VWS V14.01,2013-07-02 15:24:00,
2013-07-02 11:25:00,64.1,62.3,29.97,SE,146,1.0,1.0,94,0.00,,,0.00,0.00,VWS V14.01,2013-07-02 15:25:00,
2013-07-02 11:26:00,64.1,62.3,29.97,SE,146,0.0,1.0,94,0.00,,,0.00,0.00,VWS V14.01,2013-07-02 15:26:00,
2013-07-02 11:29:00,64.2,62.4,29.97,SE,146,0.0,2.0,94,0.00,,,0.00,0.00,VWS V14.01,2013-07-02 15:29:00,
2013-07-02 11:30:00,64.2,62.4,29.97,SE,146,0.0,1.0,94,0.00,,,0.00,0.00,VWS V14.01,2013-07-02 15:30:00,
2013-07-02 11:31:00,64.2,62.4,29.97,SE,146,0.0,2.0,94,0.00,,,0.00,0.00,VWS V14.01,2013-07-02 15:31:00,
2013-07-02 11:34:00,64.3,62.5,29.98,SE,146,1.0,3.0,94,0.00,,,0.00,0.00,VWS V14.01,2013-07-02 15:34:00,
2013-07-02 11:35:00,64.3,62.5,29.97,SE,146,0.0,2.0,94,0.00,,,0.00,0.00,VWS V14.01,2013-07-02 15:35:00,
2013-07-02 11:36:00,64.3,62.5,29.97,SE,146,0.0,0.0,94,0.00,,,0.00,0.00,VWS V14.01,2013-07-02 15:36:00,
2013-07-02 11:39:00,64.4,62.6,29.97,SE,146,0.0,1.0,94,0.00,,,0.00,0.00,VWS V14.01,2013-07-02 15:39:00,
2013-07-02 11:40:00,64.5,62.7,29.97,SE,146,0.0,0.0,94,0.00,,,0.00,0.00,VWS V14.01,2013-07-02 15:40:00,
2013-07-02 11:41:00,64.5,62.7,29.97,SE,146,1.0,1.0,94,0.00,,,0.00,0.00,VWS V14.01,2013-07-02 15:41:00,
2013-07-02 11:44:00,64.6,62.8,29.97,SE,146,1.0,1.0,94,0.00,,,0.00,0.00,VWS V14.01,2013-07-02 15:44:00,
2013-07-02 11:45:00,64.6,62.8,29.97,SSE,149,1.0,5.0,94,0.00,,,0.00,0.00,VWS V14.01,2013-07-02 15:45:00,
2013-07-02 11:46:00,64.7,62.9,29.97,SSE,149,1.0,5.0,94,0.00,,,0.00,0.00,VWS V14.01,2013-07-02 15:46:00,
2013-07-02 11:49:00,64.7,62.9,29.97,SSE,149,0.0,1.0,94,0.00,,,0.00,0.00,VWS V14.01,2013-07-02 15:49:00,
2013-07-02 11:50:00,64.8,63.0,29.97,SSE,149,1.0,1.0,94,0.00,,,0.00,0.00,VWS V14.01,2013-07-02 15:50:00,
2013-07-02 11:51:00,64.8,63.0,29.97,SSE,149,0.0,2.0,94,0.00,,,0.00,0.00,VWS V14.01,2013-07-02 15:51:00,
2013-07-02 11:54:00,64.9,62.8,29.97,SSE,149,1.0,1.0,93,0.00,,,0.00,0.00,VWS V14.01,2013-07-02 15:54:00,
2013-07-02 11:55:00,65.0,62.9,29.97,SSE,148,0.0,1.0,93,0.00,,,0.00,0.00,VWS V14.01,2013-07-02 15:55:00,
2013-07-02 11:56:00,65.0,62.9,29.97,SSE,149,1.0,1.0,93,0.00,,,0.00,0.00,VWS V14.01,2013-07-02 15:56:00,
2013-07-02 11:59:00,65.2,63.4,29.97,SSE,153,0.0,0.0,94,0.00,,,0.00,0.00,VWS V14.01,2013-07-02 15:59:00,
2013-07-02 12:00:00,65.3,63.5,29.97,SSE,153,0.0,0.0,94,0.00,,,0.00,0.00,VWS V14.01,2013-07-02 16:00:00,
2013-07-02 12:01:00,65.3,63.2,29.97,SSE,153,1.0,4.0,93,0.00,,,0.00,0.00,VWS V14.01,2013-07-02 16:01:00,
2013-07-02 12:04:00,65.5,63.4,29.97,SSE,147,0.0,1.0,93,0.00,,,0.00,0.00,VWS V14.01,2013-07-02 16:04:00,
2013-07-02 12:05:00,65.5,63.4,29.97,SSE,148,0.0,1.0,93,0.00,,,0.00,0.00,VWS V14.01,2013-07-02 16:05:00,
2013-07-02 12:06:00,65.5,63.4,29.97,SE,146,2.0,4.0,93,0.00,,,0.00,0.00,VWS V14.01,2013-07-02 16:06:00,
2013-07-02 12:09:00,65.6,63.2,29.97,SSE,148,0.0,1.0,92,0.00,,,0.00,0.00,VWS V14.01,2013-07-02 16:09:00,
2013-07-02 12:10:00,65.7,63.3,29.97,SSE,148,0.0,1.0,92,0.00,,,0.00,0.00,VWS V14.01,2013-07-02 16:10:00,
2013-07-02 12:11:00,65.7,63.6,29.97,SSE,148,1.0,1.0,93,0.00,,,0.00,0.00,VWS V14.01,2013-07-02 16:11:00,
2013-07-02 12:15:00,65.9,63.5,29.97,SSE,147,0.0,2.0,92,0.00,,,0.00,0.00,VWS V14.01,2013-07-02 16:15:00,
2013-07-02 12:16:00,65.9,63.5,29.97,SSE,148,1.0,2.0,92,0.00,,,0.00,0.00,VWS V14.01,2013-07-02 16:16:00,
2013-07-02 12:20:00,66.1,63.7,29.97,SSE,148,3.0,3.0,92,0.00,,,0.00,0.00,VWS V14.01,2013-07-02 16:20:00,
2013-07-02 12:21:00,66.2,63.8,29.97,SE,138,1.0,3.0,92,0.00,,,0.00,0.00,VWS V14.01,2013-07-02 16:21:00,
2013-07-02 12:22:00,66.2,63.8,29.97,SE,138,0.0,2.0,92,0.00,,,0.00,0.00,VWS V14.01,2013-07-02 16:22:00,
2013-07-02 12:25:00,66.4,64.0,29.97,SE,139,0.0,1.0,92,0.00,,,0.00,0.00,VWS V14.01,2013-07-02 16:25:00,
2013-07-02 12:26:00,66.5,64.1,29.97,SE,139,0.0,1.0,92,0.00,,,0.00,0.00,VWS V14.01,2013-07-02 16:26:00,
2013-07-02 12:27:00,66.6,64.2,29.97,SE,139,0.0,1.0,92,0.00,,,0.00,0.00,VWS V14.01,2013-07-02 16:27:00,
2013-07-02 12:30:00,66.9,64.5,29.97,SE,139,0.0,1.0,92,0.00,,,0.00,0.00,VWS V14.01,2013-07-02 16:30:00,
2013-07-02 12:31:00,67.0,64.6,29.97,SE,139,0.0,1.0,92,0.00,,,0.00,0.00,VWS V14.01,2013-07-02 16:31:00,
2013-07-02 12:32:00,67.1,64.4,29.97,SE,139,0.0,0.0,91,0.00,,,0.00,0.00,VWS V14.01,2013-07-02 16:32:00,
2013-07-02 12:35:00,67.3,64.3,29.97,SE,139,1.0,4.0,90,0.00,,,0.00,0.00,VWS V14.01,2013-07-02 16:35:00,
2013-07-02 12:36:00,67.4,64.7,29.97,SE,130,0.0,3.0,91,0.00,,,0.00,0.00,VWS V14.01,2013-07-02 16:36:00,
2013-07-02 12:37:00,67.4,64.4,29.97,SE,132,0.0,1.0,90,0.00,,,0.00,0.00,VWS V14.01,2013-07-02 16:37:00,
2013-07-02 12:40:00,67.6,64.6,29.97,SE,132,2.0,2.0,90,0.00,,,0.00,0.00,VWS V14.01,2013-07-02 16:40:00,
2013-07-02 12:41:00,67.7,64.7,29.97,ESE,120,0.0,1.0,90,0.00,,,0.00,0.00,VWS V14.01,2013-07-02 16:41:00,
2013-07-02 12:42:00,67.7,64.7,29.97,ESE,120,0.0,1.0,90,0.00,,,0.00,0.00,VWS V14.01,2013-07-02 16:42:00,
2013-07-02 12:45:00,67.9,64.9,29.97,SE,136,3.0,5.0,90,0.00,,,0.00,0.00,VWS V14.01,2013-07-02 16:45:00,
2013-07-02 12:46:00,68.0,64.6,29.97,SE,139,0.0,0.0,89,0.00,,,0.00,0.00,VWS V14.01,2013-07-02 16:46:00,
2013-07-02 12:47:00,68.0,64.6,29.97,SE,139,0.0,2.0,89,0.00,,,0.00,0.00,VWS V14.01,2013-07-02 16:47:00,
2013-07-02 12:50:00,68.1,64.7,29.97,SE,140,2.0,7.0,89,0.00,,,0.00,0.00,VWS V14.01,2013-07-02 16:50:00,
2013-07-02 12:51:00,68.1,64.7,29.97,SE,140,1.0,2.0,89,0.00,,,0.00,0.00,VWS V14.01,2013-07-02 16:51:00,
2013-07-02 12:52:00,68.1,64.7,29.97,SE,140,0.0,3.0,89,0.00,,,0.00,0.00,VWS V14.01,2013-07-02 16:52:00,
2013-07-02 12:55:00,68.1,64.7,29.97,SE,140,3.0,3.0,89,0.00,,,0.00,0.00,VWS V14.01,2013-07-02 16:55:00,
2013-07-02 12:56:00,68.2,64.8,29.97,SE,140,1.0,1.0,89,0.00,,,0.00,0.00,VWS V14.01,2013-07-02 16:56:00,
2013-07-02 12:57:00,68.2,64.8,29.97,SE,140,0.0,1.0,89,0.00,,,0.00,0.00,VWS V14.01,2013-07-02 16:57:00,
2013-07-02 13:00:00,68.4,65.4,29.97,SE,140,1.0,1.0,90,0.00,,,0.00,0.00,VWS V14.01,2013-07-02 17:00:00,
2013-07-02 13:01:00,68.5,65.5,29.97,SE,140,0.0,1.0,90,0.00,,,0.00,0.00,VWS V14.01,2013-07-02 17:01:00,
2013-07-02 13:02:00,68.6,65.2,29.97,SE,140,0.0,0.0,89,0.00,,,0.00,0.00,VWS V14.01,2013-07-02 17:02:00,
2013-07-02 13:05:00,68.8,65.4,29.97,SSE,148,2.0,3.0,89,0.00,,,0.00,0.00,VWS V14.01,2013-07-02 17:05:00,
2013-07-02 13:06:00,68.8,65.1,29.97,SSE,149,1.0,3.0,88,0.00,,,0.00,0.00,VWS V14.01,2013-07-02 17:06:00,
2013-07-02 13:07:00,68.8,65.1,29.97,SSE,150,0.0,2.0,88,0.00,,,0.00,0.00,VWS V14.01,2013-07-02 17:07:00,
2013-07-02 13:10:00,68.8,65.1,29.97,SE,143,1.0,5.0,88,0.00,,,0.00,0.00,VWS V14.01,2013-07-02 17:10:00,
2013-07-02 13:11:00,68.8,65.1,29.97,SE,143,0.0,5.0,88,0.00,,,0.00,0.00,VWS V14.01,2013-07-02 17:11:00,
2013-07-02 13:12:00,68.8,65.1,29.97,SE,143,0.0,0.0,88,0.00,,,0.00,0.00,VWS V14.01,2013-07-02 17:12:00,
2013-07-02 13:13:00,68.8,65.1,29.97,SE,143,1.0,1.0,88,0.00,,,0.00,0.00,VWS V14.01,2013-07-02 17:13:00,
2013-07-02 13:16:00,68.9,65.2,29.97,SSE,159,2.0,2.0,88,0.00,,,0.00,0.00,VWS V14.01,2013-07-02 17:16:00,
2013-07-02 13:17:00,68.9,65.2,29.97,SSE,159,1.0,2.0,88,0.00,,,0.00,0.00,VWS V14.01,2013-07-02 17:17:00,
2013-07-02 13:18:00,68.9,65.2,29.97,SSE,159,0.0,0.0,88,0.00,,,0.00,0.00,VWS V14.01,2013-07-02 17:18:00,
2013-07-02 13:21:00,69.0,65.3,29.97,SSE,159,1.0,1.0,88,0.00,,,0.00,0.00,VWS V14.01,2013-07-02 17:21:00,
2013-07-02 13:22:00,69.0,65.3,29.97,SSE,159,0.0,1.0,88,0.00,,,0.00,0.00,VWS V14.01,2013-07-02 17:22:00,
2013-07-02 13:23:00,69.0,65.3,29.97,South,169,0.0,3.0,88,0.00,,,0.00,0.00,VWS V14.01,2013-07-02 17:23:00,
2013-07-02 13:26:00,69.1,65.4,29.97,South,169,0.0,1.0,88,0.00,,,0.00,0.00,VWS V14.01,2013-07-02 17:26:00,
2013-07-02 13:27:00,69.2,65.5,29.97,South,169,0.0,0.0,88,0.00,,,0.00,0.00,VWS V14.01,2013-07-02 17:27:00,
2013-07-02 13:28:00,69.2,65.5,29.97,South,169,3.0,3.0,88,0.00,,,0.00,0.00,VWS V14.01,2013-07-02 17:28:00,
2013-07-02 13:31:00,69.3,65.3,29.97,South,169,0.0,2.0,87,0.00,,,0.00,0.00,VWS V14.01,2013-07-02 17:31:00,
2013-07-02 13:32:00,69.3,65.3,29.97,South,169,0.0,1.0,87,0.00,,,0.00,0.00,VWS V14.01,2013-07-02 17:32:00,
2013-07-02 13:33:00,69.3,65.3,29.97,South,169,2.0,2.0,87,0.00,,,0.00,0.00,VWS V14.01,2013-07-02 17:33:00,
2013-07-02 13:36:00,69.3,65.3,29.97,SSW,195,3.0,5.0,87,0.00,,,0.00,0.00,VWS V14.01,2013-07-02 17:36:00,
2013-07-02 13:37:00,69.3,65.3,29.97,SSW,195,0.0,1.0,87,0.00,,,0.00,0.00,VWS V14.01,2013-07-02 17:37:00,
2013-07-02 13:38:00,69.3,65.3,29.97,SSW,194,2.0,2.0,87,0.00,,,0.00,0.00,VWS V14.01,2013-07-02 17:38:00,
2013-07-02 13:41:00,69.3,65.3,29.97,SSW,194,0.0,4.0,87,0.00,,,0.00,0.00,VWS V14.01,2013-07-02 17:41:00,
2013-07-02 13:42:00,69.3,65.3,29.97,SSW,194,0.0,0.0,87,0.00,,,0.00,0.00,VWS V14.01,2013-07-02 17:42:00,
2013-07-02 13:43:00,69.3,65.3,29.97,SSW,194,0.0,0.0,87,0.00,,,0.00,0.00,VWS V14.01,2013-07-02 17:43:00,
2013-07-02 13:46:00,69.3,65.3,29.97,SSW,194,2.0,3.0,87,0.00,,,0.00,0.00,VWS V14.01,2013-07-02 17:46:00,
2013-07-02 13:48:00,69.4,65.4,29.97,SSW,194,1.0,1.0,87,0.00,,,0.00,0.00,VWS V14.01,2013-07-02 17:48:00,
2013-07-02 13:51:00,69.5,65.5,29.97,SSW,194,1.0,1.0,87,0.00,,,0.00,0.00,VWS V14.01,2013-07-02 17:51:00,
2013-07-02 13:53:00,69.6,65.6,29.97,SSW,194,0.0,1.0,87,0.00,,,0.00,0.00,VWS V14.01,2013-07-02 17:53:00,
2013-07-02 13:56:00,69.9,65.5,29.97,South,190,1.0,4.0,86,0.00,,,0.00,0.00,VWS V14.01,2013-07-02 17:56:00,
2013-07-02 13:58:00,70.0,65.3,29.97,SSW,196,3.0,3.0,85,0.00,,,0.00,0.00,VWS V14.01,2013-07-02 17:58:00,
2013-07-02 13:59:00,70.1,65.4,29.97,SSW,196,0.0,5.0,85,0.00,,,0.00,0.00,VWS V14.01,2013-07-02 17:59:00,
2013-07-02 14:01:00,70.2,65.5,29.97,SSW,196,0.0,0.0,85,0.00,,,0.00,0.00,VWS V14.01,2013-07-02 18:01:00,
2013-07-02 14:03:00,70.4,65.7,29.97,SSW,196,1.0,1.0,85,0.00,,,0.00,0.00,VWS V14.01,2013-07-02 18:03:00,
2013-07-02 14:04:00,70.4,65.7,29.97,SSW,196,0.0,2.0,85,0.00,,,0.00,0.00,VWS V14.01,2013-07-02 18:04:00,
2013-07-02 14:06:00,70.6,65.9,29.97,SSW,196,0.0,0.0,85,0.00,,,0.00,0.00,VWS V14.01,2013-07-02 18:06:00,
2013-07-02 14:07:00,70.6,65.9,29.97,SSW,196,3.0,3.0,85,0.00,,,0.00,0.00,VWS V14.01,2013-07-02 18:07:00,
2013-07-02 14:08:00,70.7,66.0,29.97,SSW,196,4.0,4.0,85,0.00,,,0.00,0.00,VWS V14.01,2013-07-02 18:08:00,
2013-07-02 14:09:00,70.7,66.0,29.97,SSW,196,2.0,3.0,85,0.00,,,0.00,0.00,VWS V14.01,2013-07-02 18:09:00,
2013-07-02 14:11:00,70.6,65.5,29.97,SSW,200,3.0,4.0,84,0.00,,,0.00,0.00,VWS V14.01,2013-07-02 18:11:00,
2013-07-02 14:12:00,70.6,65.5,29.97,SSW,200,3.0,4.0,84,0.00,,,0.00,0.00,VWS V14.01,2013-07-02 18:12:00,
2013-07-02 14:13:00,70.5,65.4,29.97,SSW,200,0.0,0.0,84,0.00,,,0.00,0.00,VWS V14.01,2013-07-02 18:13:00,
2013-07-02 14:14:00,70.5,65.8,29.97,SSW,200,0.0,0.0,85,0.00,,,0.00,0.00,VWS V14.01,2013-07-02 18:14:00,
2013-07-02 14:16:00,70.6,65.9,29.97,SSW,200,0.0,0.0,85,0.00,,,0.00,0.00,VWS V14.01,2013-07-02 18:16:00,
2013-07-02 14:17:00,70.6,65.9,29.97,SSW,200,0.0,0.0,85,0.00,,,0.00,0.00,VWS V14.01,2013-07-02 18:17:00,
2013-07-02 14:18:00,70.6,65.5,29.96,SSW,200,0.0,0.0,84,0.00,,,0.00,0.00,VWS V14.01,2013-07-02 18:18:00,
2013-07-02 14:19:00,70.7,66.0,29.96,SSW,200,0.0,0.0,85,0.00,,,0.00,0.00,VWS V14.01,2013-07-02 18:19:00,
2013-07-02 14:21:00,71.0,66.3,29.96,SSW,198,0.0,0.0,85,0.00,,,0.00,0.00,VWS V14.01,2013-07-02 18:21:00,
2013-07-02 14:22:00,71.1,66.4,29.96,SSW,198,0.0,0.0,85,0.00,,,0.00,0.00,VWS V14.01,2013-07-02 18:22:00,
2013-07-02 14:23:00,71.2,66.5,29.96,SSW,198,0.0,1.0,85,0.00,,,0.00,0.00,VWS V14.01,2013-07-02 18:23:00,
2013-07-02 14:24:00,71.3,66.2,29.96,SSW,198,0.0,0.0,84,0.00,,,0.00,0.00,VWS V14.01,2013-07-02 18:24:00,
2013-07-02 14:27:00,71.7,66.6,29.96,SSW,194,0.0,1.0,84,0.00,,,0.00,0.00,VWS V14.01,2013-07-02 18:27:00,
2013-07-02 14:28:00,71.9,66.8,29.96,SSW,194,0.0,1.0,84,0.00,,,0.00,0.00,VWS V14.01,2013-07-02 18:28:00,
2013-07-02 14:29:00,72.1,67.0,29.96,SSW,194,0.0,1.0,84,0.00,,,0.00,0.00,VWS V14.01,2013-07-02 18:29:00,
2013-07-02 14:31:00,72.5,67.1,29.96,SSW,194,1.0,1.0,83,0.00,,,0.00,0.00,VWS V14.01,2013-07-02 18:31:00,
2013-07-02 14:32:00,72.5,66.7,29.96,SSW,194,0.0,2.0,82,0.00,,,0.00,0.00,VWS V14.01,2013-07-02 18:32:00,
2013-07-02 14:33:00,72.6,66.4,29.96,SSW,194,1.0,2.0,81,0.00,,,0.00,0.00,VWS V14.01,2013-07-02 18:33:00,
2013-07-02 14:34:00,72.7,66.2,29.95,SSW,194,0.0,1.0,80,0.00,,,0.00,0.00,VWS V14.01,2013-07-02 18:34:00,
2013-07-02 14:37:00,73.0,66.8,29.95,SSW,194,0.0,2.0,81,0.00,,,0.00,0.00,VWS V14.01,2013-07-02 18:37:00,
2013-07-02 14:38:00,73.1,66.2,29.95,SSW,194,2.0,3.0,79,0.00,,,0.00,0.00,VWS V14.01,2013-07-02 18:38:00,
2013-07-02 14:39:00,73.1,66.2,29.95,SSW,194,0.0,0.0,79,0.00,,,0.00,0.00,VWS V14.01,2013-07-02 18:39:00,
2013-07-02 14:42:00,73.1,66.2,29.95,SSW,194,0.0,3.0,79,0.00,,,0.00,0.00,VWS V14.01,2013-07-02 18:42:00,
2013-07-02 14:43:00,73.1,66.2,29.95,SSW,194,0.0,2.0,79,0.00,,,0.00,0.00,VWS V14.01,2013-07-02 18:43:00,
2013-07-02 14:44:00,73.1,66.2,29.95,SSW,194,0.0,0.0,79,0.00,,,0.00,0.00,VWS V14.01,2013-07-02 18:44:00,
2013-07-02 14:47:00,73.1,66.2,29.96,SSW,194,1.0,1.0,79,0.00,,,0.00,0.00,VWS V14.01,2013-07-02 18:47:00,
2013-07-02 14:48:00,73.1,65.8,29.96,SSW,200,0.0,5.0,78,0.00,,,0.00,0.00,VWS V14.01,2013-07-02 18:48:00,
2013-07-02 14:49:00,73.1,65.8,29.96,SSW,200,2.0,3.0,78,0.00,,,0.00,0.00,VWS V14.01,2013-07-02 18:49:00,
2013-07-02 14:52:00,72.8,65.9,29.96,SW,230,0.0,0.0,79,0.00,,,0.00,0.00,VWS V14.01,2013-07-02 18:52:00,
2013-07-02 14:53:00,72.8,65.9,29.96,SW,230,0.0,1.0,79,0.00,,,0.00,0.00,VWS V14.01,2013-07-02 18:53:00,
2013-07-02 14:54:00,72.8,65.9,29.96,SW,230,2.0,2.0,79,0.00,,,0.00,0.00,VWS V14.01,2013-07-02 18:54:00,
2013-07-02 14:57:00,72.8,65.6,29.96,SW,219,1.0,1.0,78,0.00,,,0.00,0.00,VWS V14.01,2013-07-02 18:57:00,
2013-07-02 14:58:00,72.9,66.0,29.96,SW,219,0.0,1.0,79,0.00,,,0.00,0.00,VWS V14.01,2013-07-02 18:58:00,
2013-07-02 14:59:00,73.1,66.9,29.95,SW,219,1.0,2.0,81,0.00,,,0.00,0.00,VWS V14.01,2013-07-02 18:59:00,
2013-07-02 15:02:00,73.6,66.3,29.95,SW,217,0.0,1.0,78,0.00,,,0.00,0.00,VWS V14.01,2013-07-02 19:02:00,
2013-07-02 15:03:00,73.7,66.1,29.95,SW,217,1.0,2.0,77,0.00,,,0.00,0.00,VWS V14.01,2013-07-02 19:03:00,
2013-07-02 15:04:00,73.8,66.2,29.96,SW,215,0.0,3.0,77,0.00,,,0.00,0.00,VWS V14.01,2013-07-02 19:04:00,
2013-07-02 15:07:00,73.9,66.2,29.96,SW,215,0.0,2.0,77,0.00,,,0.00,0.00,VWS V14.01,2013-07-02 19:07:00,
2013-07-02 15:08:00,73.9,65.9,29.96,SW,215,0.0,2.0,76,0.00,,,0.00,0.00,VWS V14.01,2013-07-02 19:08:00,
2013-07-02 15:09:00,74.0,66.0,29.96,SW,215,0.0,1.0,76,0.00,,,0.00,0.00,VWS V14.01,2013-07-02 19:09:00,
2013-07-02 15:12:00,73.9,65.9,29.96,SW,215,0.0,1.0,76,0.00,,,0.00,0.00,VWS V14.01,2013-07-02 19:12:00,
2013-07-02 15:13:00,73.9,66.2,29.96,SW,215,1.0,1.0,77,0.00,,,0.00,0.00,VWS V14.01,2013-07-02 19:13:00,
2013-07-02 15:14:00,73.9,66.2,29.95,SW,215,0.0,1.0,77,0.00,,,0.00,0.00,VWS V14.01,2013-07-02 19:14:00,
2013-07-02 15:17:00,74.1,66.4,29.95,SW,215,0.0,1.0,77,0.00,,,0.00,0.00,VWS V14.01,2013-07-02 19:17:00,
2013-07-02 15:18:00,74.1,66.1,29.95,SW,215,1.0,1.0,76,0.00,,,0.00,0.00,VWS V14.01,2013-07-02 19:18:00,
2013-07-02 15:19:00,74.2,66.2,29.95,SW,215,0.0,1.0,76,0.00,,,0.00,0.00,VWS V14.01,2013-07-02 19:19:00,
2013-07-02 15:22:00,74.3,65.5,29.95,SW,214,0.0,0.0,74,0.00,,,0.00,0.00,VWS V14.01,2013-07-02 19:22:00,
2013-07-02 15:23:00,74.4,65.6,29.95,SW,214,0.0,0.0,74,0.00,,,0.00,0.00,VWS V14.01,2013-07-02 19:23:00,
2013-07-02 15:24:00,74.4,66.0,29.95,SW,214,1.0,2.0,75,0.00,,,0.00,0.00,VWS V14.01,2013-07-02 19:24:00,
2013-07-02 15:27:00,74.8,66.3,29.95,SSE,159,2.0,4.0,75,0.00,,,0.00,0.00,VWS V14.01,2013-07-02 19:27:00,
2013-07-02 15:28:00,74.9,66.8,29.95,SSE,159,1.0,2.0,76,0.00,,,0.00,0.00,VWS V14.01,2013-07-02 19:28:00,
2013-07-02 15:29:00,75.0,66.9,29.95,SSE,159,0.0,2.0,76,0.00,,,0.00,0.00,VWS V14.01,2013-07-02 19:29:00,
2013-07-02 15:32:00,75.4,66.5,29.95,SSE,159,0.0,0.0,74,0.00,,,0.00,0.00,VWS V14.01,2013-07-02 19:32:00,
2013-07-02 15:33:00,75.5,66.6,29.96,SSE,159,1.0,1.0,74,0.00,,,0.00,0.00,VWS V14.01,2013-07-02 19:33:00,
2013-07-02 15:34:00,75.5,66.2,29.96,SSE,159,0.0,1.0,73,0.00,,,0.00,0.00,VWS V14.01,2013-07-02 19:34:00,
2013-07-02 15:38:00,75.7,66.4,29.95,SSE,159,0.0,0.0,73,0.00,,,0.00,0.00,VWS V14.01,2013-07-02 19:38:00,
2013-07-02 15:39:00,75.7,66.4,29.95,SSE,159,0.0,1.0,73,0.00,,,0.00,0.00,VWS V14.01,2013-07-02 19:39:00,
2013-07-02 15:43:00,75.7,66.4,29.95,SSE,159,0.0,2.0,73,0.00,,,0.00,0.00,VWS V14.01,2013-07-02 19:43:00,
2013-07-02 15:44:00,75.7,66.0,29.95,SSE,159,0.0,1.0,72,0.00,,,0.00,0.00,VWS V14.01,2013-07-02 19:44:00,
2013-07-02 15:48:00,75.5,66.2,29.95,SSE,159,0.0,0.0,73,0.00,,,0.00,0.00,VWS V14.01,2013-07-02 19:48:00,
2013-07-02 15:49:00,75.4,65.8,29.95,SSE,159,2.0,2.0,72,0.00,,,0.00,0.00,VWS V14.01,2013-07-02 19:49:00,
2013-07-02 15:50:00,75.5,66.2,29.95,SSE,159,0.0,1.0,73,0.00,,,0.00,0.00,VWS V14.01,2013-07-02 19:50:00,
2013-07-02 15:53:00,75.5,66.6,29.95,SSE,159,0.0,2.0,74,0.00,,,0.00,0.00,VWS V14.01,2013-07-02 19:53:00,
2013-07-02 15:54:00,75.6,66.7,29.95,SSE,159,0.0,2.0,74,0.00,,,0.00,0.00,VWS V14.01,2013-07-02 19:54:00,
2013-07-02 15:55:00,75.6,66.7,29.95,SSE,159,2.0,3.0,74,0.00,,,0.00,0.00,VWS V14.01,2013-07-02 19:55:00,
2013-07-02 15:58:00,75.9,66.6,29.95,SSE,159,2.0,4.0,73,0.00,,,0.00,0.00,VWS V14.01,2013-07-02 19:58:00,
2013-07-02 15:59:00,75.9,66.6,29.95,SSE,159,2.0,4.0,73,0.00,,,0.00,0.00,VWS V14.01,2013-07-02 19:59:00,
2013-07-02 16:00:00,76.0,66.3,29.95,SSE,158,0.0,1.0,72,0.00,,,0.00,0.00,VWS V14.01,2013-07-02 20:00:00,
2013-07-02 16:04:00,76.3,67.0,29.94,SSE,158,0.0,0.0,73,0.00,,,0.00,0.00,VWS V14.01,2013-07-02 20:04:00,
2013-07-02 16:05:00,76.5,68.0,29.94,SSE,158,0.0,1.0,75,0.00,,,0.00,0.00,VWS V14.01,2013-07-02 20:05:00,
2013-07-02 16:09:00,76.8,66.3,29.94,South,170,0.0,5.0,70,0.00,,,0.00,0.00,VWS V14.01,2013-07-02 20:09:00,
2013-07-02 16:10:00,76.8,66.7,29.94,South,170,0.0,1.0,71,0.00,,,0.00,0.00,VWS V14.01,2013-07-02 20:10:00,
2013-07-02 16:14:00,77.2,67.5,29.94,South,170,0.0,1.0,72,0.00,,,0.00,0.00,VWS V14.01,2013-07-02 20:14:00,
2013-07-02 16:15:00,77.3,67.2,29.94,South,170,1.0,1.0,71,0.00,,,0.00,0.00,VWS V14.01,2013-07-02 20:15:00,
2013-07-02 16:19:00,77.5,67.4,29.94,SSE,156,1.0,3.0,71,0.00,,,0.00,0.00,VWS V14.01,2013-07-02 20:19:00,
2013-07-02 16:20:00,77.5,66.9,29.94,SSE,156,1.0,2.0,70,0.00,,,0.00,0.00,VWS V14.01,2013-07-02 20:20:00,
2013-07-02 16:24:00,77.4,66.4,29.94,SSE,154,1.0,3.0,69,0.00,,,0.00,0.00,VWS V14.01,2013-07-02 20:24:00,
2013-07-02 16:25:00,77.4,67.3,29.94,SSE,154,1.0,1.0,71,0.00,,,0.00,0.00,VWS V14.01,2013-07-02 20:25:00,
2013-07-02 16:29:00,77.6,67.1,29.93,SE,134,1.0,5.0,70,0.00,,,0.00,0.00,VWS V14.01,2013-07-02 20:29:00,
2013-07-02 16:30:00,77.6,67.5,29.94,SE,132,2.0,4.0,71,0.00,,,0.00,0.00,VWS V14.01,2013-07-02 20:30:00,
2013-07-02 16:34:00,77.5,66.9,29.93,SE,132,0.0,1.0,70,0.00,,,0.00,0.00,VWS V14.01,2013-07-02 20:34:00,
2013-07-02 16:35:00,77.5,67.8,29.93,SE,132,1.0,1.0,72,0.00,,,0.00,0.00,VWS V14.01,2013-07-02 20:35:00,
2013-07-02 16:39:00,77.6,67.9,29.93,SE,132,2.0,2.0,72,0.00,,,0.00,0.00,VWS V14.01,2013-07-02 20:39:00,
2013-07-02 16:40:00,77.7,67.1,29.93,SE,132,0.0,1.0,70,0.00,,,0.00,0.00,VWS V14.01,2013-07-02 20:40:00,
2013-07-02 16:44:00,77.8,66.4,29.93,SE,132,0.0,0.0,68,0.00,,,0.00,0.00,VWS V14.01,2013-07-02 20:44:00,
2013-07-02 16:45:00,77.9,66.5,29.93,SE,132,0.0,1.0,68,0.00,,,0.00,0.00,VWS V14.01,2013-07-02 20:45:00,
2013-07-02 16:49:00,78.3,67.3,29.93,SE,132,0.0,1.0,69,0.00,,,0.00,0.00,VWS V14.01,2013-07-02 20:49:00,
2013-07-02 16:50:00,78.4,67.8,29.93,SE,132,1.0,2.0,70,0.00,,,0.00,0.00,VWS V14.01,2013-07-02 20:50:00,
2013-07-02 16:54:00,78.2,66.8,29.93,SE,132,0.0,3.0,68,0.00,,,0.00,0.00,VWS V14.01,2013-07-02 20:54:00,
2013-07-02 16:55:00,78.2,67.2,29.93,SE,132,0.0,1.0,69,0.00,,,0.00,0.00,VWS V14.01,2013-07-02 20:55:00,
2013-07-02 16:59:00,78.2,66.8,29.93,SE,132,0.0,1.0,68,0.00,,,0.00,0.00,VWS V14.01,2013-07-02 20:59:00,
2013-07-02 17:00:00,78.2,67.2,29.93,SE,132,1.0,1.0,69,0.00,,,0.00,0.00,VWS V14.01,2013-07-02 21:00:00,
2013-07-02 17:04:00,78.7,67.3,29.93,SE,128,3.0,3.0,68,0.00,,,0.00,0.00,VWS V14.01,2013-07-02 21:04:00,
2013-07-02 17:05:00,78.7,67.7,29.93,SE,128,0.0,3.0,69,0.00,,,0.00,0.00,VWS V14.01,2013-07-02 21:05:00,
2013-07-02 17:09:00,78.8,67.4,29.93,SE,128,0.0,0.0,68,0.00,,,0.00,0.00,VWS V14.01,2013-07-02 21:09:00,
2013-07-02 17:10:00,78.8,67.4,29.93,SE,128,0.0,1.0,68,0.00,,,0.00,0.00,VWS V14.01,2013-07-02 21:10:00,
2013-07-02 17:14:00,78.4,67.0,29.93,SE,138,0.0,1.0,68,0.00,,,0.00,0.00,VWS V14.01,2013-07-02 21:14:00,
2013-07-02 17:15:00,78.3,66.9,29.93,SE,138,0.0,1.0,68,0.00,,,0.00,0.00,VWS V14.01,2013-07-02 21:15:00,
2013-07-02 17:19:00,77.9,66.9,29.93,SE,134,1.0,1.0,69,0.00,,,0.00,0.00,VWS V14.01,2013-07-02 21:19:00,
2013-07-02 17:20:00,77.8,66.8,29.93,SE,132,1.0,4.0,69,0.00,,,0.00,0.00,VWS V14.01,2013-07-02 21:20:00,
2013-07-02 17:21:00,77.8,66.8,29.93,SE,132,1.0,4.0,69,0.00,,,0.00,0.00,VWS V14.01,2013-07-02 21:21:00,
2013-07-02 17:24:00,77.5,66.1,29.93,SE,132,1.0,1.0,68,0.00,,,0.00,0.00,VWS V14.01,2013-07-02 21:24:00,
2013-07-02 17:25:00,77.5,66.5,29.93,SE,132,0.0,1.0,69,0.00,,,0.00,0.00,VWS V14.01,2013-07-02 21:25:00,
2013-07-02 17:26:00,77.4,66.4,29.93,SE,132,0.0,1.0,69,0.00,,,0.00,0.00,VWS V14.01,2013-07-02 21:26:00,
2013-07-02 17:29:00,77.3,66.8,29.93,SE,132,0.0,1.0,70,0.00,,,0.00,0.00,VWS V14.01,2013-07-02 21:29:00,
2013-07-02 17:30:00,77.3,66.8,29.93,SE,132,0.0,1.0,70,0.00,,,0.00,0.00,VWS V14.01,2013-07-02 21:30:00,
2013-07-02 17:31:00,77.3,67.2,29.93,SE,132,0.0,0.0,71,0.00,,,0.00,0.00,VWS V14.01,2013-07-02 21:31:00,
2013-07-02 17:35:00,77.3,67.2,29.93,SE,132,0.0,0.0,71,0.00,,,0.00,0.00,VWS V14.01,2013-07-02 21:35:00,
2013-07-02 17:36:00,77.3,66.8,29.93,SE,132,0.0,0.0,70,0.00,,,0.00,0.00,VWS V14.01,2013-07-02 21:36:00,
2013-07-02 17:40:00,77.3,66.8,29.93,SE,132,0.0,1.0,70,0.00,,,0.00,0.00,VWS V14.01,2013-07-02 21:40:00,
2013-07-02 17:41:00,77.3,67.2,29.93,SE,132,0.0,0.0,71,0.00,,,0.00,0.00,VWS V14.01,2013-07-02 21:41:00,
2013-07-02 17:45:00,77.2,67.1,29.93,SE,132,0.0,1.0,71,0.00,,,0.00,0.00,VWS V14.01,2013-07-02 21:45:00,
2013-07-02 17:46:00,77.1,67.0,29.93,SE,132,0.0,0.0,71,0.00,,,0.00,0.00,VWS V14.01,2013-07-02 21:46:00,
2013-07-02 17:50:00,77.0,66.9,29.93,SE,132,0.0,0.0,71,0.00,,,0.00,0.00,VWS V14.01,2013-07-02 21:50:00,
2013-07-02 17:51:00,76.9,67.2,29.93,SE,132,0.0,0.0,72,0.00,,,0.00,0.00,VWS V14.01,2013-07-02 21:51:00,
2013-07-02 17:55:00,77.1,67.0,29.93,SE,132,0.0,1.0,71,0.00,,,0.00,0.00,VWS V14.01,2013-07-02 21:55:00,
2013-07-02 17:56:00,77.1,67.0,29.93,SE,132,0.0,0.0,71,0.00,,,0.00,0.00,VWS V14.01,2013-07-02 21:56:00,
2013-07-02 18:00:00,77.3,67.2,29.93,SE,132,0.0,1.0,71,0.00,,,0.00,0.00,VWS V14.01,2013-07-02 22:00:00,
2013-07-02 18:01:00,77.3,67.2,29.93,SE,132,0.0,1.0,71,0.00,,,0.00,0.00,VWS V14.01,2013-07-02 22:01:00,
2013-07-02 18:05:00,77.3,67.6,29.93,SE,132,0.0,1.0,72,0.00,,,0.00,0.00,VWS V14.01,2013-07-02 22:05:00,
2013-07-02 18:06:00,77.3,67.6,29.93,SE,132,0.0,1.0,72,0.00,,,0.00,0.00,VWS V14.01,2013-07-02 22:06:00,
2013-07-02 18:10:00,77.2,68.3,29.92,SE,132,0.0,2.0,74,0.00,,,0.00,0.00,VWS V14.01,2013-07-02 22:10:00,
2013-07-02 18:11:00,77.2,68.3,29.92,SE,132,1.0,2.0,74,0.00,,,0.00,0.00,VWS V14.01,2013-07-02 22:11:00,
2013-07-02 18:15:00,77.2,67.9,29.93,SE,132,2.0,2.0,73,0.00,,,0.00,0.00,VWS V14.01,2013-07-02 22:15:00,
2013-07-02 18:16:00,77.3,68.0,29.93,SE,130,1.0,3.0,73,0.00,,,0.00,0.00,VWS V14.01,2013-07-02 22:16:00,
2013-07-02 18:21:00,77.3,68.0,29.93,ESE,117,1.0,1.0,73,0.00,,,0.00,0.00,VWS V14.01,2013-07-02 22:21:00,
2013-07-02 18:26:00,77.5,68.2,29.93,ESE,117,1.0,2.0,73,0.00,,,0.00,0.00,VWS V14.01,2013-07-02 22:26:00,
2013-07-02 18:31:00,77.9,68.2,29.93,ESE,117,1.0,1.0,72,0.00,,,0.00,0.00,VWS V14.01,2013-07-02 22:31:00,
2013-07-02 18:36:00,78.1,67.9,29.93,ESE,119,1.0,1.0,71,0.00,,,0.00,0.00,VWS V14.01,2013-07-02 22:36:00,
2013-07-02 18:41:00,78.1,67.9,29.93,ESE,119,0.0,1.0,71,0.00,,,0.00,0.00,VWS V14.01,2013-07-02 22:41:00,
2013-07-02 18:42:00,78.1,67.9,29.93,ESE,119,0.0,2.0,71,0.00,,,0.00,0.00,VWS V14.01,2013-07-02 22:42:00,
2013-07-02 18:46:00,77.8,67.7,29.93,ESE,121,3.0,3.0,71,0.00,,,0.00,0.00,VWS V14.01,2013-07-02 22:46:00,
2013-07-02 18:47:00,77.7,67.6,29.93,ESE,121,1.0,2.0,71,0.00,,,0.00,0.00,VWS V14.01,2013-07-02 22:47:00,
2013-07-02 18:51:00,77.5,67.8,29.93,SE,128,2.0,2.0,72,0.00,,,0.00,0.00,VWS V14.01,2013-07-02 22:51:00,
2013-07-02 18:52:00,77.4,67.3,29.93,SE,128,1.0,4.0,71,0.00,,,0.00,0.00,VWS V14.01,2013-07-02 22:52:00,
2013-07-02 18:56:00,77.2,67.9,29.93,SE,128,0.0,0.0,73,0.00,,,0.00,0.00,VWS V14.01,2013-07-02 22:56:00,
2013-07-02 18:57:00,77.1,67.8,29.93,SE,128,0.0,1.0,73,0.00,,,0.00,0.00,VWS V14.01,2013-07-02 22:57:00,
2013-07-02 19:01:00,77.1,67.8,29.93,SE,126,0.0,1.0,73,0.00,,,0.00,0.00,VWS V14.01,2013-07-02 23:01:00,
2013-07-02 19:02:00,77.1,67.8,29.93,SE,126,1.0,1.0,73,0.00,,,0.00,0.00,VWS V14.01,2013-07-02 23:02:00,
2013-07-02 19:06:00,77.0,68.1,29.93,ESE,123,2.0,4.0,74,0.00,,,0.00,0.00,VWS V14.01,2013-07-02 23:06:00,
2013-07-02 19:07:00,77.0,68.5,29.93,ESE,123,0.0,3.0,75,0.00,,,0.00,0.00,VWS V14.01,2013-07-02 23:07:00,
2013-07-02 19:11:00,76.7,68.6,29.93,ESE,123,1.0,1.0,76,0.00,,,0.00,0.00,VWS V14.01,2013-07-02 23:11:00,
2013-07-02 19:12:00,76.7,68.6,29.93,ESE,123,0.0,1.0,76,0.00,,,0.00,0.00,VWS V14.01,2013-07-02 23:12:00,
2013-07-02 19:16:00,76.4,68.7,29.94,SE,126,2.0,2.0,77,0.00,,,0.00,0.00,VWS V14.01,2013-07-02 23:16:00,
2013-07-02 19:17:00,76.4,68.7,29.94,SE,126,1.0,4.0,77,0.00,,,0.00,0.00,VWS V14.01,2013-07-02 23:17:00,
2013-07-02 19:21:00,76.0,68.7,29.93,SE,128,1.0,2.0,78,0.00,,,0.00,0.00,VWS V14.01,2013-07-02 23:21:00,
2013-07-02 19:22:00,75.9,68.6,29.93,SE,128,0.0,2.0,78,0.00,,,0.00,0.00,VWS V14.01,2013-07-02 23:22:00,
2013-07-02 19:26:00,75.5,69.3,29.93,SE,128,1.0,2.0,81,0.00,,,0.00,0.00,VWS V14.01,2013-07-02 23:26:00,
2013-07-02 19:27:00,75.5,68.9,29.93,SE,128,3.0,3.0,80,0.00,,,0.00,0.00,VWS V14.01,2013-07-02 23:27:00,
2013-07-02 19:29:00,75.3,68.7,29.94,SE,139,0.0,6.0,80,0.00,,,0.00,0.00,VWS V14.01,2013-07-02 23:29:00,
2013-07-02 19:31:00,75.0,68.4,29.94,SE,140,0.0,2.0,80,0.00,,,0.00,0.00,VWS V14.01,2013-07-02 23:31:00,
2013-07-02 19:32:00,74.9,68.3,29.94,SE,140,0.0,2.0,80,0.00,,,0.00,0.00,VWS V14.01,2013-07-02 23:32:00,
2013-07-02 19:34:00,74.7,68.5,29.94,SE,141,0.0,0.0,81,0.00,,,0.00,0.00,VWS V14.01,2013-07-02 23:34:00,
2013-07-02 19:36:00,74.5,68.3,29.94,SE,141,1.0,4.0,81,0.00,,,0.00,0.00,VWS V14.01,2013-07-02 23:36:00,
2013-07-02 19:37:00,74.5,68.3,29.94,SE,141,0.0,4.0,81,0.00,,,0.00,0.00,VWS V14.01,2013-07-02 23:37:00,
2013-07-02 19:39:00,74.3,68.4,29.94,SE,141,1.0,1.0,82,0.00,,,0.00,0.00,VWS V14.01,2013-07-02 23:39:00,
2013-07-02 19:41:00,74.1,68.3,29.94,SE,141,0.0,0.0,82,0.00,,,0.00,0.00,VWS V14.01,2013-07-02 23:41:00,
2013-07-02 19:42:00,74.1,68.3,29.94,SE,141,0.0,0.0,82,0.00,,,0.00,0.00,VWS V14.01,2013-07-02 23:42:00,
2013-07-02 19:44:00,73.9,68.4,29.94,SE,141,0.0,0.0,83,0.00,,,0.00,0.00,VWS V14.01,2013-07-02 23:44:00,
2013-07-02 19:47:00,73.8,68.3,29.94,SE,141,0.0,0.0,83,0.00,,,0.00,0.00,VWS V14.01,2013-07-02 23:47:00,
2013-07-02 19:48:00,73.8,68.3,29.94,SE,141,0.0,0.0,83,0.00,,,0.00,0.00,VWS V14.01,2013-07-02 23:48:00,
2013-07-02 19:49:00,73.7,68.2,29.94,SE,141,0.0,0.0,83,0.00,,,0.00,0.00,VWS V14.01,2013-07-02 23:49:00,
2013-07-02 19:52:00,73.6,68.5,29.94,SE,141,0.0,0.0,84,0.00,,,0.00,0.00,VWS V14.01,2013-07-02 23:52:00,
2013-07-02 19:53:00,73.5,68.4,29.94,SE,141,0.0,0.0,84,0.00,,,0.00,0.00,VWS V14.01,2013-07-02 23:53:00,
2013-07-02 19:54:00,73.5,68.4,29.94,SE,141,0.0,0.0,84,0.00,,,0.00,0.00,VWS V14.01,2013-07-02 23:54:00,
2013-07-02 19:57:00,73.4,68.6,29.94,SE,141,0.0,0.0,85,0.00,,,0.00,0.00,VWS V14.01,2013-07-02 23:57:00,
2013-07-02 19:58:00,73.4,68.3,29.94,SE,141,0.0,1.0,84,0.00,,,0.00,0.00,VWS V14.01,2013-07-02 23:58:00,
2013-07-02 19:59:00,73.3,68.5,29.94,SE,141,0.0,0.0,85,0.00,,,0.00,0.00,VWS V14.01,2013-07-02 23:59:00,
2013-07-02 20:01:00,73.3,68.5,29.94,SE,141,0.0,1.0,85,0.00,,,0.00,0.00,VWS V14.01,2013-07-03 00:01:00,
2013-07-02 20:02:00,73.3,68.5,29.94,SE,141,0.0,0.0,85,0.00,,,0.00,0.00,VWS V14.01,2013-07-03 00:02:00,
2013-07-02 20:03:00,73.2,68.4,29.94,SE,141,0.0,0.0,85,0.00,,,0.00,0.00,VWS V14.01,2013-07-03 00:03:00,
2013-07-02 20:04:00,73.1,68.3,29.94,SE,141,0.0,2.0,85,0.00,,,0.00,0.00,VWS V14.01,2013-07-03 00:04:00,
2013-07-02 20:06:00,73.1,68.3,29.94,SE,140,0.0,2.0,85,0.00,,,0.00,0.00,VWS V14.01,2013-07-03 00:06:00,
2013-07-02 20:07:00,73.0,68.6,29.94,SE,140,0.0,1.0,86,0.00,,,0.00,0.00,VWS V14.01,2013-07-03 00:07:00,
2013-07-02 20:08:00,73.0,68.6,29.94,SE,140,1.0,1.0,86,0.00,,,0.00,0.00,VWS V14.01,2013-07-03 00:08:00,
2013-07-02 20:10:00,72.9,68.5,29.94,SE,140,0.0,2.0,86,0.00,,,0.00,0.00,VWS V14.01,2013-07-03 00:10:00,
2013-07-02 20:11:00,72.9,68.5,29.94,SE,140,0.0,1.0,86,0.00,,,0.00,0.00,VWS V14.01,2013-07-03 00:11:00,
2013-07-02 20:12:00,72.8,68.4,29.93,SE,140,0.0,2.0,86,0.00,,,0.00,0.00,VWS V14.01,2013-07-03 00:12:00,
2013-07-02 20:13:00,72.7,68.3,29.94,SE,140,1.0,2.0,86,0.00,,,0.00,0.00,VWS V14.01,2013-07-03 00:13:00,
2013-07-02 20:15:00,72.7,68.3,29.94,SE,140,0.0,0.0,86,0.00,,,0.00,0.00,VWS V14.01,2013-07-03 00:15:00,
2013-07-02 20:16:00,72.6,68.2,29.94,SE,140,0.0,1.0,86,0.00,,,0.00,0.00,VWS V14.01,2013-07-03 00:16:00,
2013-07-02 20:17:00,72.6,68.5,29.94,SE,140,1.0,4.0,87,0.00,,,0.00,0.00,VWS V14.01,2013-07-03 00:17:00,
2013-07-02 20:18:00,72.6,68.5,29.94,SE,140,0.0,4.0,87,0.00,,,0.00,0.00,VWS V14.01,2013-07-03 00:18:00,
2013-07-02 20:20:00,72.5,68.4,29.94,SE,140,0.0,3.0,87,0.00,,,0.00,0.00,VWS V14.01,2013-07-03 00:20:00,
2013-07-02 20:21:00,72.4,68.0,29.94,SE,144,3.0,8.0,86,0.00,,,0.00,0.00,VWS V14.01,2013-07-03 00:21:00,
2013-07-02 20:22:00,72.4,68.3,29.93,SE,144,1.0,1.0,87,0.00,,,0.00,0.00,VWS V14.01,2013-07-03 00:22:00,
2013-07-02 20:23:00,72.3,68.2,29.93,SE,144,1.0,3.0,87,0.00,,,0.00,0.00,VWS V14.01,2013-07-03 00:23:00,
2013-07-02 20:24:00,72.3,68.2,29.93,SE,144,0.0,2.0,87,0.00,,,0.00,0.00,VWS V14.01,2013-07-03 00:24:00,
2013-07-02 20:26:00,72.1,68.0,29.93,SE,144,1.0,6.0,87,0.00,,,0.00,0.00,VWS V14.01,2013-07-03 00:26:00,
2013-07-02 20:27:00,72.0,67.9,29.93,SE,144,0.0,1.0,87,0.00,,,0.00,0.00,VWS V14.01,2013-07-03 00:27:00,
2013-07-02 20:28:00,72.0,67.9,29.93,SE,144,2.0,3.0,87,0.00,,,0.00,0.00,VWS V14.01,2013-07-03 00:28:00,
2013-07-02 20:31:00,71.8,68.1,29.93,SE,136,1.0,1.0,88,0.00,,,0.00,0.00,VWS V14.01,2013-07-03 00:31:00,
2013-07-02 20:32:00,71.8,68.1,29.93,SE,136,0.0,0.0,88,0.00,,,0.00,0.00,VWS V14.01,2013-07-03 00:32:00,
2013-07-02 20:33:00,71.7,68.0,29.93,SE,136,0.0,1.0,88,0.00,,,0.00,0.00,VWS V14.01,2013-07-03 00:33:00,
2013-07-02 20:36:00,71.6,67.9,29.93,SE,135,0.0,0.0,88,0.00,,,0.00,0.00,VWS V14.01,2013-07-03 00:36:00,
2013-07-02 20:37:00,71.6,67.9,29.93,SE,143,6.0,6.0,88,0.00,,,0.00,0.00,VWS V14.01,2013-07-03 00:37:00,
2013-07-02 20:38:00,71.6,67.9,29.93,SE,143,0.0,6.0,88,0.00,,,0.00,0.00,VWS V14.01,2013-07-03 00:38:00,
2013-07-02 20:41:00,71.5,67.8,29.93,SE,143,0.0,0.0,88,0.00,,,0.00,0.00,VWS V14.01,2013-07-03 00:41:00,
2013-07-02 20:42:00,71.4,67.7,29.94,SE,143,0.0,1.0,88,0.00,,,0.00,0.00,VWS V14.01,2013-07-03 00:42:00,
2013-07-02 20:43:00,71.4,67.7,29.94,SE,143,0.0,1.0,88,0.00,,,0.00,0.00,VWS V14.01,2013-07-03 00:43:00,
2013-07-02 20:46:00,71.2,67.5,29.94,SE,143,1.0,1.0,88,0.00,,,0.00,0.00,VWS V14.01,2013-07-03 00:46:00,
2013-07-02 20:47:00,71.2,67.5,29.94,SE,143,0.0,4.0,88,0.00,,,0.00,0.00,VWS V14.01,2013-07-03 00:47:00,
2013-07-02 20:48:00,71.2,67.5,29.94,SE,143,0.0,4.0,88,0.00,,,0.00,0.00,VWS V14.01,2013-07-03 00:48:00,
2013-07-02 20:51:00,71.1,67.4,29.94,SE,143,0.0,0.0,88,0.00,,,0.00,0.00,VWS V14.01,2013-07-03 00:51:00,
2013-07-02 20:52:00,71.1,67.4,29.95,SE,143,1.0,1.0,88,0.00,,,0.00,0.00,VWS V14.01,2013-07-03 00:52:00,
2013-07-02 20:53:00,71.1,67.4,29.95,SE,143,0.0,1.0,88,0.00,,,0.00,0.00,VWS V14.01,2013-07-03 00:53:00,
2013-07-02 20:56:00,71.0,67.3,29.95,SE,143,0.0,1.0,88,0.00,,,0.00,0.00,VWS V14.01,2013-07-03 00:56:00,
2013-07-02 20:57:00,71.0,67.3,29.95,SE,143,0.0,1.0,88,0.00,,,0.00,0.00,VWS V14.01,2013-07-03 00:57:00,
2013-07-02 20:58:00,71.0,67.3,29.95,SE,143,0.0,0.0,88,0.00,,,0.00,0.00,VWS V14.01,2013-07-03 00:58:00,
2013-07-02 21:00:00,71.0,67.6,29.95,SE,143,2.0,3.0,89,0.00,,,0.00,0.00,VWS V14.01,2013-07-03 01:00:00,
2013-07-02 21:01:00,71.0,67.6,29.95,SE,143,0.0,0.0,89,0.00,,,0.00,0.00,VWS V14.01,2013-07-03 01:01:00,
2013-07-02 21:02:00,71.0,67.6,29.95,SE,143,0.0,0.0,89,0.00,,,0.00,0.00,VWS V14.01,2013-07-03 01:02:00,
2013-07-02 21:03:00,71.0,67.6,29.95,SE,143,1.0,3.0,89,0.00,,,0.00,0.00,VWS V14.01,2013-07-03 01:03:00,
2013-07-02 21:04:00,71.0,67.3,29.95,SE,143,4.0,4.0,88,0.00,,,0.00,0.00,VWS V14.01,2013-07-03 01:04:00,
2013-07-02 21:05:00,70.9,67.2,29.94,SE,143,1.0,5.0,88,0.00,,,0.00,0.00,VWS V14.01,2013-07-03 01:05:00,
2013-07-02 21:07:00,70.8,67.1,29.95,SE,138,0.0,5.0,88,0.00,,,0.00,0.00,VWS V14.01,2013-07-03 01:07:00,
2013-07-02 21:08:00,70.8,67.1,29.95,SE,140,0.0,4.0,88,0.00,,,0.00,0.00,VWS V14.01,2013-07-03 01:08:00,
2013-07-02 21:09:00,70.7,67.0,29.95,SE,140,0.0,3.0,88,0.00,,,0.00,0.00,VWS V14.01,2013-07-03 01:09:00,
2013-07-02 21:10:00,70.7,67.0,29.95,SE,140,0.0,1.0,88,0.00,,,0.00,0.00,VWS V14.01,2013-07-03 01:10:00,
2013-07-02 21:12:00,70.6,66.9,29.95,SE,140,2.0,5.0,88,0.00,,,0.00,0.00,VWS V14.01,2013-07-03 01:12:00,
2013-07-02 21:13:00,70.6,66.9,29.95,SE,140,0.0,5.0,88,0.00,,,0.00,0.00,VWS V14.01,2013-07-03 01:13:00,
2013-07-02 21:14:00,70.6,66.9,29.94,SE,140,0.0,1.0,88,0.00,,,0.00,0.00,VWS V14.01,2013-07-03 01:14:00,
2013-07-02 21:15:00,70.5,67.1,29.94,SE,140,1.0,2.0,89,0.00,,,0.00,0.00,VWS V14.01,2013-07-03 01:15:00,
2013-07-02 21:18:00,70.4,67.0,29.94,SE,140,0.0,0.0,89,0.00,,,0.00,0.00,VWS V14.01,2013-07-03 01:18:00,
2013-07-02 21:19:00,70.4,67.0,29.94,SE,140,0.0,0.0,89,0.00,,,0.00,0.00,VWS V14.01,2013-07-03 01:19:00,
2013-07-02 21:20:00,70.3,66.9,29.94,SE,140,2.0,2.0,89,0.00,,,0.00,0.00,VWS V14.01,2013-07-03 01:20:00,
2013-07-02 21:23:00,70.3,66.9,29.94,SE,140,1.0,1.0,89,0.00,,,0.00,0.00,VWS V14.01,2013-07-03 01:23:00,
2013-07-02 21:24:00,70.2,66.8,29.94,SE,140,0.0,2.0,89,0.00,,,0.00,0.00,VWS V14.01,2013-07-03 01:24:00,
2013-07-02 21:25:00,70.2,66.8,29.94,SE,140,0.0,0.0,89,0.00,,,0.00,0.00,VWS V14.01,2013-07-03 01:25:00,
2013-07-02 21:26:00,70.2,66.8,29.94,SE,140,0.0,0.0,89,0.00,,,0.00,0.00,VWS V14.01,2013-07-03 01:26:00,
2013-07-02 21:28:00,70.1,66.7,29.94,SE,140,0.0,0.0,89,0.00,,,0.00,0.00,VWS V14.01,2013-07-03 01:28:00,
2013-07-02 21:29:00,70.1,66.7,29.94,SE,141,0.0,2.0,89,0.00,,,0.00,0.00,VWS V14.01,2013-07-03 01:29:00,
2013-07-02 21:30:00,70.1,66.7,29.94,SE,141,0.0,1.0,89,0.00,,,0.00,0.00,VWS V14.01,2013-07-03 01:30:00,
2013-07-02 21:31:00,70.1,66.7,29.94,SE,141,0.0,1.0,89,0.00,,,0.00,0.00,VWS V14.01,2013-07-03 01:31:00,
2013-07-02 21:33:00,70.0,66.6,29.94,SE,141,0.0,1.0,89,0.00,,,0.00,0.00,VWS V14.01,2013-07-03 01:33:00,
2013-07-02 21:34:00,70.0,66.6,29.94,SE,140,1.0,1.0,89,0.00,,,0.00,0.00,VWS V14.01,2013-07-03 01:34:00,
2013-07-02 21:36:00,70.0,66.6,29.94,SE,141,0.0,1.0,89,0.00,,,0.00,0.00,VWS V14.01,2013-07-03 01:36:00,
2013-07-02 21:38:00,69.9,66.8,29.94,SE,141,0.0,0.0,90,0.00,,,0.00,0.00,VWS V14.01,2013-07-03 01:38:00,
2013-07-02 21:39:00,69.9,66.8,29.94,SE,141,0.0,1.0,90,0.00,,,0.00,0.00,VWS V14.01,2013-07-03 01:39:00,
2013-07-02 21:41:00,69.9,66.8,29.94,SE,141,0.0,1.0,90,0.00,,,0.00,0.00,VWS V14.01,2013-07-03 01:41:00,
2013-07-02 21:43:00,69.8,66.7,29.94,SE,141,1.0,2.0,90,0.00,,,0.00,0.00,VWS V14.01,2013-07-03 01:43:00,
2013-07-02 21:44:00,69.8,66.7,29.94,SE,141,1.0,3.0,90,0.00,,,0.00,0.00,VWS V14.01,2013-07-03 01:44:00,
2013-07-02 21:46:00,69.8,66.7,29.94,SE,144,5.0,5.0,90,0.00,,,0.00,0.00,VWS V14.01,2013-07-03 01:46:00,
2013-07-02 21:49:00,69.8,66.7,29.95,SE,144,0.0,1.0,90,0.00,,,0.00,0.00,VWS V14.01,2013-07-03 01:49:00,
2013-07-02 21:50:00,69.8,66.7,29.95,SE,144,0.0,1.0,90,0.00,,,0.00,0.00,VWS V14.01,2013-07-03 01:50:00,
2013-07-02 21:52:00,69.8,66.7,29.95,SE,144,0.0,2.0,90,0.00,,,0.00,0.00,VWS V14.01,2013-07-03 01:52:00,
2013-07-02 21:54:00,69.8,66.7,29.95,SE,144,0.0,1.0,90,0.00,,,0.00,0.00,VWS V14.01,2013-07-03 01:54:00,
2013-07-02 21:55:00,69.7,66.6,29.95,SE,144,2.0,2.0,90,0.00,,,0.00,0.00,VWS V14.01,2013-07-03 01:55:00,
2013-07-02 21:57:00,69.7,66.6,29.95,SE,144,0.0,0.0,90,0.00,,,0.00,0.00,VWS V14.01,2013-07-03 01:57:00,
2013-07-02 21:59:00,69.7,66.6,29.95,SE,144,0.0,1.0,90,0.00,,,0.00,0.00,VWS V14.01,2013-07-03 01:59:00,
2013-07-02 22:01:00,69.7,66.6,29.96,SE,144,0.0,0.0,90,0.00,,,0.00,0.00,VWS V14.01,2013-07-03 02:01:00,
2013-07-02 22:02:00,69.6,66.5,29.96,SE,144,0.0,0.0,90,0.00,,,0.00,0.00,VWS V14.01,2013-07-03 02:02:00,
2013-07-02 22:04:00,69.6,66.9,29.96,SE,144,0.0,2.0,91,0.00,,,0.00,0.00,VWS V14.01,2013-07-03 02:04:00,
2013-07-02 22:06:00,69.6,66.9,29.96,SE,144,0.0,0.0,91,0.00,,,0.00,0.00,VWS V14.01,2013-07-03 02:06:00,
2013-07-02 22:08:00,69.6,66.9,29.96,SE,144,0.0,2.0,91,0.00,,,0.00,0.00,VWS V14.01,2013-07-03 02:08:00,
2013-07-02 22:09:00,69.5,66.8,29.96,SE,143,1.0,1.0,91,0.00,,,0.00,0.00,VWS V14.01,2013-07-03 02:09:00,
2013-07-02 22:11:00,69.5,66.8,29.96,SE,143,0.0,1.0,91,0.00,,,0.00,0.00,VWS V14.01,2013-07-03 02:11:00,
2013-07-02 22:13:00,69.5,66.8,29.96,SE,143,0.0,1.0,91,0.00,,,0.00,0.00,VWS V14.01,2013-07-03 02:13:00,
2013-07-02 22:14:00,69.4,67.0,29.96,SE,143,0.0,0.0,92,0.00,,,0.00,0.00,VWS V14.01,2013-07-03 02:14:00,
2013-07-02 22:15:00,69.4,66.7,29.96,SE,143,0.0,0.0,91,0.00,,,0.00,0.00,VWS V14.01,2013-07-03 02:15:00,
2013-07-02 22:16:00,69.4,67.0,29.96,SE,143,0.0,0.0,92,0.00,,,0.00,0.00,VWS V14.01,2013-07-03 02:16:00,
2013-07-02 22:18:00,69.3,66.9,29.96,SE,143,2.0,2.0,92,0.00,,,0.00,0.00,VWS V14.01,2013-07-03 02:18:00,
2013-07-02 22:19:00,69.3,66.9,29.96,SE,144,1.0,3.0,92,0.00,,,0.00,0.00,VWS V14.01,2013-07-03 02:19:00,
2013-07-02 22:20:00,69.2,66.8,29.96,SE,144,0.0,3.0,92,0.00,,,0.00,0.00,VWS V14.01,2013-07-03 02:20:00,
2013-07-02 22:21:00,69.2,66.8,29.96,SE,134,0.0,1.0,92,0.00,,,0.00,0.00,VWS V14.01,2013-07-03 02:21:00,
2013-07-02 22:23:00,69.0,66.6,29.97,SE,135,1.0,1.0,92,0.00,,,0.00,0.00,VWS V14.01,2013-07-03 02:23:00,
2013-07-02 22:25:00,69.0,66.6,29.96,SE,142,0.0,0.0,92,0.00,,,0.00,0.00,VWS V14.01,2013-07-03 02:25:00,
2013-07-02 22:27:00,68.9,66.5,29.97,SE,143,1.0,6.0,92,0.00,,,0.00,0.00,VWS V14.01,2013-07-03 02:27:00,
2013-07-02 22:28:00,68.8,66.4,29.97,SE,143,0.0,1.0,92,0.00,,,0.00,0.00,VWS V14.01,2013-07-03 02:28:00,
2013-07-02 22:30:00,68.7,66.3,29.97,SE,139,6.0,7.0,92,0.00,,,0.00,0.00,VWS V14.01,2013-07-03 02:30:00,
2013-07-02 22:31:00,68.7,66.3,29.97,SE,139,2.0,6.0,92,0.00,,,0.00,0.00,VWS V14.01,2013-07-03 02:31:00,
2013-07-02 22:32:00,68.6,66.2,29.97,SE,139,0.0,6.0,92,0.00,,,0.00,0.00,VWS V14.01,2013-07-03 02:32:00,
2013-07-02 22:33:00,68.6,66.5,29.97,SE,139,2.0,4.0,93,0.00,,,0.00,0.00,VWS V14.01,2013-07-03 02:33:00,
2013-07-02 22:35:00,68.6,66.5,29.97,SE,139,0.0,0.0,93,0.00,,,0.00,0.00,VWS V14.01,2013-07-03 02:35:00,
2013-07-02 22:37:00,68.6,66.5,29.97,SE,139,0.0,0.0,93,0.00,,,0.00,0.00,VWS V14.01,2013-07-03 02:37:00,
2013-07-02 22:38:00,68.6,66.5,29.97,SE,139,0.0,1.0,93,0.00,,,0.00,0.00,VWS V14.01,2013-07-03 02:38:00,
2013-07-02 22:41:00,68.5,66.4,29.97,SE,139,0.0,1.0,93,0.00,,,0.00,0.00,VWS V14.01,2013-07-03 02:41:00,
2013-07-02 22:42:00,68.5,66.4,29.97,SE,139,0.0,1.0,93,0.00,,,0.00,0.00,VWS V14.01,2013-07-03 02:42:00,
2013-07-02 22:43:00,68.4,66.3,29.97,SE,139,0.0,1.0,93,0.00,,,0.00,0.00,VWS V14.01,2013-07-03 02:43:00,
2013-07-02 22:44:00,68.4,66.3,29.97,SE,139,2.0,2.0,93,0.00,,,0.00,0.00,VWS V14.01,2013-07-03 02:44:00,
2013-07-02 22:46:00,68.4,66.3,29.97,SE,139,0.0,1.0,93,0.00,,,0.00,0.00,VWS V14.01,2013-07-03 02:46:00,
2013-07-02 22:48:00,68.3,66.2,29.98,SE,139,0.0,1.0,93,0.00,,,0.00,0.00,VWS V14.01,2013-07-03 02:48:00,
2013-07-02 22:49:00,68.3,66.5,29.98,SE,139,0.0,1.0,94,0.00,,,0.00,0.00,VWS V14.01,2013-07-03 02:49:00,
2013-07-02 22:52:00,68.2,66.4,29.97,SE,139,0.0,1.0,94,0.00,,,0.00,0.00,VWS V14.01,2013-07-03 02:52:00,
2013-07-02 22:53:00,68.2,66.4,29.97,SE,139,0.0,1.0,94,0.00,,,0.00,0.00,VWS V14.01,2013-07-03 02:53:00,
2013-07-02 22:54:00,68.2,66.4,29.97,SE,139,0.0,1.0,94,0.00,,,0.00,0.00,VWS V14.01,2013-07-03 02:54:00,
2013-07-02 22:57:00,68.1,66.3,29.97,SE,139,0.0,0.0,94,0.00,,,0.00,0.00,VWS V14.01,2013-07-03 02:57:00,
2013-07-02 22:58:00,68.1,66.3,29.97,SE,139,0.0,1.0,94,0.00,,,0.00,0.00,VWS V14.01,2013-07-03 02:58:00,
2013-07-02 22:59:00,68.1,66.3,29.97,SE,139,0.0,0.0,94,0.00,,,0.00,0.00,VWS V14.01,2013-07-03 02:59:00,
2013-07-02 23:02:00,68.1,66.6,29.97,SE,139,0.0,0.0,95,0.00,,,0.00,0.00,VWS V14.01,2013-07-03 03:02:00,
2013-07-02 23:03:00,68.1,66.3,29.98,SE,139,0.0,0.0,94,0.00,,,0.00,0.00,VWS V14.01,2013-07-03 03:03:00,
2013-07-02 23:05:00,68.1,66.6,29.97,SE,139,0.0,3.0,95,0.00,,,0.00,0.00,VWS V14.01,2013-07-03 03:05:00,
2013-07-02 23:07:00,68.1,66.6,29.97,SE,138,2.0,4.0,95,0.00,,,0.00,0.00,VWS V14.01,2013-07-03 03:07:00,
2013-07-02 23:08:00,68.1,66.6,29.97,SE,138,0.0,4.0,95,0.00,,,0.00,0.00,VWS V14.01,2013-07-03 03:08:00,
2013-07-02 23:09:00,68.1,66.6,29.97,SE,138,0.0,0.0,95,0.00,,,0.00,0.00,VWS V14.01,2013-07-03 03:09:00,
2013-07-02 23:10:00,68.1,66.6,29.98,SE,138,0.0,1.0,95,0.00,,,0.00,0.00,VWS V14.01,2013-07-03 03:10:00,
2013-07-02 23:13:00,68.1,66.6,29.98,SE,138,0.0,0.0,95,0.00,,,0.00,0.00,VWS V14.01,2013-07-03 03:13:00,
2013-07-02 23:14:00,68.0,66.5,29.98,SE,138,0.0,1.0,95,0.00,,,0.00,0.00,VWS V14.01,2013-07-03 03:14:00,
2013-07-02 23:15:00,68.0,66.5,29.98,SE,138,0.0,3.0,95,0.00,,,0.00,0.00,VWS V14.01,2013-07-03 03:15:00,
2013-07-02 23:18:00,68.1,66.6,29.98,SE,138,0.0,1.0,95,0.00,,,0.00,0.00,VWS V14.01,2013-07-03 03:18:00,
2013-07-02 23:19:00,68.1,66.6,29.98,SE,138,0.0,0.0,95,0.00,,,0.00,0.00,VWS V14.01,2013-07-03 03:19:00,
2013-07-02 23:20:00,68.1,66.6,29.98,SE,138,0.0,0.0,95,0.00,,,0.00,0.00,VWS V14.01,2013-07-03 03:20:00,
2013-07-02 23:23:00,68.0,66.5,29.98,SE,138,0.0,1.0,95,0.00,,,0.00,0.00,VWS V14.01,2013-07-03 03:23:00,
2013-07-02 23:24:00,68.0,66.5,29.98,SE,138,0.0,1.0,95,0.00,,,0.00,0.00,VWS V14.01,2013-07-03 03:24:00,
2013-07-02 23:25:00,68.0,66.5,29.98,SE,138,0.0,0.0,95,0.00,,,0.00,0.00,VWS V14.01,2013-07-03 03:25:00,
2013-07-02 23:29:00,68.0,66.5,29.98,SE,138,0.0,0.0,95,0.00,,,0.00,0.00,VWS V14.01,2013-07-03 03:29:00,
2013-07-02 23:30:00,68.0,66.5,29.98,SE,138,0.0,0.0,95,0.00,,,0.00,0.00,VWS V14.01,2013-07-03 03:30:00,
2013-07-02 23:34:00,68.0,66.5,29.98,SE,138,0.0,0.0,95,0.00,,,0.00,0.00,VWS V14.01,2013-07-03 03:34:00,
2013-07-02 23:35:00,68.0,66.5,29.98,SE,138,0.0,0.0,95,0.00,,,0.00,0.00,VWS V14.01,2013-07-03 03:35:00,
2013-07-02 23:39:00,68.0,66.5,29.98,SE,138,0.0,0.0,95,0.00,,,0.00,0.00,VWS V14.01,2013-07-03 03:39:00,
2013-07-02 23:40:00,68.0,66.5,29.98,SE,138,0.0,0.0,95,0.00,,,0.00,0.00,VWS V14.01,2013-07-03 03:40:00,
2013-07-02 23:41:00,68.0,66.5,29.98,SE,138,0.0,0.0,95,0.00,,,0.00,0.00,VWS V14.01,2013-07-03 03:41:00,
2013-07-02 23:44:00,68.0,66.5,29.98,SE,138,0.0,0.0,95,0.00,,,0.00,0.00,VWS V14.01,2013-07-03 03:44:00,
2013-07-02 23:45:00,68.0,66.5,29.98,SE,138,0.0,0.0,95,0.00,,,0.00,0.00,VWS V14.01,2013-07-03 03:45:00,
2013-07-02 23:46:00,68.0,66.5,29.98,SE,138,0.0,0.0,95,0.00,,,0.00,0.00,VWS V14.01,2013-07-03 03:46:00,
2013-07-02 23:49:00,68.0,66.5,29.98,SE,138,0.0,0.0,95,0.00,,,0.00,0.00,VWS V14.01,2013-07-03 03:49:00,
2013-07-02 23:50:00,68.0,66.5,29.99,SE,138,0.0,0.0,95,0.00,,,0.00,0.00,VWS V14.01,2013-07-03 03:50:00,
2013-07-02 23:52:00,68.0,66.5,29.98,SE,138,0.0,0.0,95,0.00,,,0.00,0.00,VWS V14.01,2013-07-03 03:52:00,
2013-07-02 23:54:00,67.9,66.4,29.99,SE,138,0.0,0.0,95,0.00,,,0.00,0.00,VWS V14.01,2013-07-03 03:54:00,
2013-07-02 23:55:00,67.9,66.4,29.99,SE,138,0.0,0.0,95,0.00,,,0.00,0.00,VWS V14.01,2013-07-03 03:55:00,
2013-07-02 23:58:00,67.9,66.4,29.99,SE,138,0.0,0.0,95,0.00,,,0.00,0.00,VWS V14.01,2013-07-03 03:58:00,
2013-07-02 23:59:00,67.9,66.4,29.98,SE,138,0.0,0.0,95,0.00,,,0.00,0.00,VWS V14.01,2013-07-03 03:59:00,